CFG778 EDDF-VRMM

Flight info

Callsign CFG778
Flight time 9h 35m
Altitude 33000
Route CINDY2D CINDY Z74 LAMPU DCT NOMBO Y161 MAH L173 OTT M867 RADIZ DCT PENEP DCT RASTU DCT GLOMY DCT INLOT DCT PINDO DCT PIKOS UL607 ATV DCT PAXIS Y707 OBRAN L321 REXUM M872 PMA Y214 RAPMA DCT ULONO DCT DAPOL L692 GISKA N569 GOLNI P570 KITAL L894 LELEM LELEM2A
Aircraft A339/H-SADE1E2E3GHIJ3J5M1P2RWXY/LB2D1

Departure

Time 2026-05-08 14:02
Airport Frankfurt Main Airport (EDDF)

Arrival

Time 2026-05-08 23:37
Airport Velana International Airport (VRMM)
Time Latitude Longitude Altitude Speed Heading
2026-05-08 13:53 50.03627 8.53786 347 ft 0 kts 160°
2026-05-08 13:56 50.03617 8.53792 356 ft 5 kts 160°
2026-05-08 13:56 50.03612 8.53795 347 ft 0 kts 160°
2026-05-08 13:57 50.03551 8.53794 347 ft 15 kts 204°
2026-05-08 13:57 50.03487 8.53605 353 ft 24 kts 249°
2026-05-08 13:57 50.03415 8.53443 350 ft 13 kts 191°
2026-05-08 13:57 50.03361 8.53507 346 ft 8 kts 125°
2026-05-08 13:58 50.03358 8.53512 346 ft 0 kts 125°
2026-05-08 13:58 50.03358 8.53513 346 ft 0 kts 125°
2026-05-08 13:58 50.03357 8.53515 346 ft 0 kts 125°
2026-05-08 13:58 50.03356 8.53517 347 ft 0 kts 125°
2026-05-08 13:59 50.03355 8.53519 347 ft 0 kts 125°
2026-05-08 13:59 50.03354 8.53521 347 ft 0 kts 125°
2026-05-08 13:59 50.03354 8.53522 347 ft 1 kts 125°
2026-05-08 14:00 50.03327 8.53583 349 ft 17 kts 124°
2026-05-08 14:00 50.03318 8.53718 353 ft 11 kts 87°
2026-05-08 14:00 50.03320 8.53752 354 ft 0 kts 81°
2026-05-08 14:00 50.03332 8.53775 356 ft 7 kts 52°
2026-05-08 14:01 50.03340 8.53800 354 ft 13 kts 65°
2026-05-08 14:01 50.03548 8.54632 355 ft 109 kts 70°
2026-05-08 14:01 50.03756 8.55526 365 ft 149 kts 69°
2026-05-08 14:01 50.04173 8.57244 545 ft 183 kts 68°
2026-05-08 14:02 50.04778 8.59926 958 ft 213 kts 70°
2026-05-08 14:02 50.05104 8.61447 1238 ft 226 kts 70°
2026-05-08 14:02 50.05609 8.63845 1875 ft 233 kts 71°
2026-05-08 14:02 50.06097 8.66186 2875 ft 225 kts 72°
2026-05-08 14:03 50.06576 8.68494 3516 ft 227 kts 71°
2026-05-08 14:03 50.07070 8.70852 4111 ft 231 kts 72°
2026-05-08 14:03 50.07571 8.73222 4688 ft 235 kts 72°
2026-05-08 14:03 50.08056 8.75668 5249 ft 238 kts 79°
2026-05-08 14:04 50.08005 8.78225 5780 ft 239 kts 107°
2026-05-08 14:04 50.07218 8.80551 6174 ft 245 kts 134°
2026-05-08 14:04 50.05847 8.82040 6823 ft 240 kts 160°
2026-05-08 14:04 50.04207 8.82403 7278 ft 244 kts 189°
2026-05-08 14:05 50.02651 8.81432 7781 ft 242 kts 219°
2026-05-08 14:05 50.01563 8.79438 8271 ft 247 kts 239°
2026-05-08 14:05 50.00804 8.76979 8566 ft 258 kts 251°
2026-05-08 14:05 50.00131 8.74351 8921 ft 266 kts 237°
2026-05-08 14:06 49.98840 8.72319 9488 ft 267 kts 212°
2026-05-08 14:06 49.97088 8.71338 10006 ft 272 kts 188°
2026-05-08 14:06 49.95188 8.71113 10477 ft 275 kts 187°
2026-05-08 14:06 49.93275 8.70786 10959 ft 279 kts 189°
2026-05-08 14:07 49.91296 8.70400 11099 ft 295 kts 189°
2026-05-08 14:07 49.89201 8.69991 11243 ft 311 kts 188°
2026-05-08 14:07 49.87017 8.70102 11373 ft 329 kts 169°
2026-05-08 14:07 49.84864 8.71521 11545 ft 345 kts 147°
2026-05-08 14:08 49.83149 8.74144 11995 ft 351 kts 125°
2026-05-08 14:08 49.82108 8.77571 12487 ft 355 kts 108°
2026-05-08 14:08 49.81452 8.81274 12947 ft 358 kts 104°
2026-05-08 14:08 49.80851 8.85035 13445 ft 361 kts 104°
2026-05-08 14:09 49.80210 8.88798 13920 ft 363 kts 105°
2026-05-08 14:09 49.79518 8.92564 14358 ft 365 kts 107°
2026-05-08 14:09 49.78786 8.96347 14821 ft 367 kts 107°
2026-05-08 14:09 49.78034 9.00143 15254 ft 370 kts 108°
2026-05-08 14:10 49.77274 9.03951 15701 ft 372 kts 108°
2026-05-08 14:10 49.76507 9.07783 16089 ft 375 kts 108°
2026-05-08 14:10 49.75808 9.11691 16497 ft 378 kts 104°
2026-05-08 14:10 49.75144 9.15633 16894 ft 380 kts 109°
2026-05-08 14:11 49.74067 9.19369 17324 ft 380 kts 121°
2026-05-08 14:11 49.72535 9.22698 17736 ft 381 kts 133°
2026-05-08 14:11 49.70754 9.25764 18164 ft 383 kts 133°
2026-05-08 14:11 49.68981 9.28853 18560 ft 386 kts 133°
2026-05-08 14:12 49.67207 9.31973 18952 ft 388 kts 133°
2026-05-08 14:12 49.65428 9.35112 19345 ft 389 kts 133°
2026-05-08 14:12 49.63639 9.38262 19728 ft 391 kts 134°
2026-05-08 14:12 49.61711 9.41158 20089 ft 392 kts 142°
2026-05-08 14:13 49.59518 9.43638 20486 ft 391 kts 150°
2026-05-08 14:13 49.57165 9.45765 20862 ft 392 kts 152°
2026-05-08 14:13 49.54800 9.47893 21193 ft 396 kts 152°
2026-05-08 14:13 49.52426 9.50050 21611 ft 397 kts 152°
2026-05-08 14:14 49.50038 9.52229 21977 ft 400 kts 152°
2026-05-08 14:14 49.47633 9.54424 22371 ft 402 kts 152°
2026-05-08 14:14 49.45226 9.56618 22770 ft 404 kts 152°
2026-05-08 14:14 49.42796 9.58830 23161 ft 406 kts 152°
2026-05-08 14:15 49.40360 9.61044 23561 ft 408 kts 152°
2026-05-08 14:15 49.37908 9.63268 23906 ft 410 kts 152°
2026-05-08 14:15 49.35455 9.65526 24243 ft 413 kts 149°
2026-05-08 14:15 49.33141 9.68166 24568 ft 417 kts 142°
2026-05-08 14:16 49.31039 9.71256 24904 ft 420 kts 137°
2026-05-08 14:16 49.28982 9.74455 25233 ft 422 kts 137°
2026-05-08 14:16 49.26932 9.77613 25571 ft 424 kts 137°
2026-05-08 14:16 49.24838 9.80816 25901 ft 426 kts 137°
2026-05-08 14:17 49.22734 9.84022 26216 ft 428 kts 137°
2026-05-08 14:17 49.20617 9.87238 26551 ft 430 kts 137°
2026-05-08 14:17 49.18495 9.90459 26864 ft 431 kts 137°
2026-05-08 14:17 49.16359 9.93697 27171 ft 433 kts 137°
2026-05-08 14:18 49.14214 9.96946 27472 ft 435 kts 137°
2026-05-08 14:18 49.12058 10.00206 27791 ft 437 kts 137°
2026-05-08 14:18 49.09896 10.03472 28089 ft 439 kts 138°
2026-05-08 14:18 49.07722 10.06754 28374 ft 440 kts 138°
2026-05-08 14:19 49.05542 10.10034 28685 ft 442 kts 138°
2026-05-08 14:19 49.03302 10.13262 28965 ft 443 kts 140°
2026-05-08 14:19 49.01028 10.16448 29247 ft 445 kts 140°
2026-05-08 14:19 48.98745 10.19635 29537 ft 446 kts 140°
2026-05-08 14:20 48.96456 10.22837 29778 ft 448 kts 140°
2026-05-08 14:20 48.94158 10.26064 30089 ft 450 kts 140°
2026-05-08 14:20 48.91857 10.29306 30349 ft 451 kts 140°
2026-05-08 14:20 48.89580 10.32518 30579 ft 453 kts 140°
2026-05-08 14:21 48.87268 10.35778 30809 ft 455 kts 140°
2026-05-08 14:21 48.84939 10.39057 31061 ft 457 kts 140°
2026-05-08 14:21 48.82614 10.42369 31293 ft 460 kts 138°
2026-05-08 14:21 48.80407 10.45898 31512 ft 462 kts 136°
2026-05-08 14:22 48.78200 10.49453 31747 ft 464 kts 136°
2026-05-08 14:22 48.75980 10.53018 31949 ft 466 kts 137°
2026-05-08 14:22 48.73738 10.56613 32069 ft 471 kts 138°
2026-05-08 14:22 48.71483 10.60213 32305 ft 471 kts 138°
2026-05-08 14:23 48.69219 10.63817 32535 ft 473 kts 138°
2026-05-08 14:23 48.66949 10.67427 32713 ft 474 kts 138°
2026-05-08 14:23 48.64668 10.71052 32894 ft 476 kts 138°
2026-05-08 14:23 48.62377 10.74685 33032 ft 477 kts 138°
2026-05-08 14:24 48.60081 10.78324 33087 ft 480 kts 138°
2026-05-08 14:24 48.55497 10.85618 33076 ft 481 kts 138°
2026-05-08 14:25 48.50907 10.92978 33077 ft 482 kts 138°
2026-05-08 14:25 48.46287 11.00298 33074 ft 481 kts 139°
2026-05-08 14:26 48.41628 11.07534 33075 ft 481 kts 139°
2026-05-08 14:26 48.36998 11.14715 33073 ft 481 kts 139°
2026-05-08 14:27 48.32337 11.21938 33068 ft 481 kts 139°
2026-05-08 14:27 48.27899 11.29457 33067 ft 486 kts 129°
2026-05-08 14:28 48.25055 11.38785 33065 ft 502 kts 109°
2026-05-08 14:28 48.23441 11.48990 33065 ft 502 kts 108°
2026-05-08 14:29 48.21783 11.59175 33067 ft 502 kts 108°
2026-05-08 14:29 48.20099 11.69370 33070 ft 505 kts 109°
2026-05-08 14:30 48.18005 11.79355 33063 ft 496 kts 122°
2026-05-08 14:30 48.16232 11.83697 33064 ft 483 kts 134°
2026-05-08 14:30 48.14029 11.87337 33062 ft 473 kts 144°
2026-05-08 14:31 48.09131 11.93911 33052 ft 473 kts 144°
2026-05-08 14:31 48.04277 12.00573 33038 ft 474 kts 144°
2026-05-08 14:32 47.97017 12.10542 33042 ft 471 kts 144°
2026-05-08 14:32 47.92171 12.17143 33040 ft 471 kts 145°
2026-05-08 14:33 47.87183 12.23413 33036 ft 468 kts 147°
2026-05-08 14:33 47.82162 12.29621 33034 ft 469 kts 147°
2026-05-08 14:34 47.77159 12.35860 33037 ft 469 kts 147°
2026-05-08 14:34 47.72184 12.42072 33036 ft 466 kts 147°
2026-05-08 14:35 47.67233 12.48204 33034 ft 467 kts 147°
2026-05-08 14:35 47.62242 12.54343 33038 ft 466 kts 147°
2026-05-08 14:36 47.57230 12.60459 33025 ft 465 kts 147°
2026-05-08 14:36 47.52222 12.66556 33013 ft 468 kts 147°
2026-05-08 14:37 47.47227 12.72626 33032 ft 462 kts 147°
2026-05-08 14:37 47.42243 12.78664 33028 ft 463 kts 147°
2026-05-08 14:38 47.37253 12.84698 33028 ft 464 kts 147°
2026-05-08 14:38 47.32253 12.90727 33023 ft 464 kts 147°
2026-05-08 14:39 47.27260 12.96732 33016 ft 465 kts 147°
2026-05-08 14:39 47.22255 13.02738 33022 ft 468 kts 146°
2026-05-08 14:40 47.17210 13.08778 33022 ft 467 kts 146°
2026-05-08 14:40 47.12161 13.14806 33028 ft 467 kts 147°
2026-05-08 14:41 47.07120 13.20808 33018 ft 467 kts 147°
2026-05-08 14:41 47.02046 13.26833 33029 ft 471 kts 147°
2026-05-08 14:42 46.96948 13.32873 33033 ft 470 kts 147°
2026-05-08 14:42 46.91909 13.38832 33030 ft 469 kts 147°
2026-05-08 14:43 46.86813 13.44842 33028 ft 469 kts 147°
2026-05-08 14:43 46.81725 13.50824 33035 ft 469 kts 147°
2026-05-08 14:44 46.76627 13.56802 33043 ft 469 kts 147°
2026-05-08 14:44 46.71562 13.62728 33030 ft 469 kts 147°
2026-05-08 14:45 46.66467 13.68675 33026 ft 470 kts 147°
2026-05-08 14:45 46.61362 13.74622 33021 ft 470 kts 147°
2026-05-08 14:46 46.56255 13.80554 33034 ft 470 kts 147°
2026-05-08 14:46 46.51148 13.86467 33013 ft 469 kts 147°
2026-05-08 14:47 46.46045 13.92366 33036 ft 469 kts 147°
2026-05-08 14:47 46.40928 13.98269 33039 ft 469 kts 147°
2026-05-08 14:48 46.36676 14.03161 33033 ft 468 kts 147°
2026-05-08 14:48 46.31557 14.09034 33026 ft 469 kts 147°
2026-05-08 14:49 46.26462 14.14869 33027 ft 469 kts 147°
2026-05-08 14:49 46.21339 14.20719 33021 ft 469 kts 147°
2026-05-08 14:50 46.16210 14.26563 33025 ft 469 kts 147°
2026-05-08 14:50 46.11110 14.32436 33021 ft 470 kts 145°
2026-05-08 14:51 46.06199 14.38618 33022 ft 471 kts 144°
2026-05-08 14:51 46.01270 14.44831 33004 ft 470 kts 143°
2026-05-08 14:52 45.93824 14.54076 33013 ft 471 kts 144°
2026-05-08 14:53 45.88878 14.60183 33028 ft 472 kts 144°
2026-05-08 14:53 45.83893 14.66324 33036 ft 472 kts 144°
2026-05-08 14:54 45.78899 14.72467 33036 ft 473 kts 144°
2026-05-08 14:54 45.73894 14.78604 33023 ft 472 kts 144°
2026-05-08 14:55 45.68924 14.84682 33029 ft 472 kts 144°
2026-05-08 14:55 45.63937 14.90765 33029 ft 472 kts 144°
2026-05-08 14:56 45.58940 14.96848 33023 ft 472 kts 144°
2026-05-08 14:56 45.53945 15.02913 33033 ft 471 kts 144°
2026-05-08 14:57 45.48949 15.08966 33025 ft 471 kts 144°
2026-05-08 14:57 45.43949 15.15010 33025 ft 471 kts 144°
2026-05-08 14:58 45.38984 15.20995 33027 ft 470 kts 144°
2026-05-08 14:58 45.33983 15.27009 33023 ft 470 kts 144°
2026-05-08 14:59 45.28999 15.32990 33024 ft 469 kts 144°
2026-05-08 14:59 45.21506 15.41953 33021 ft 469 kts 144°
2026-05-08 15:00 45.16548 15.47866 33023 ft 469 kts 144°
2026-05-08 15:00 45.11553 15.53809 33004 ft 469 kts 144°
2026-05-08 15:01 45.06542 15.59754 33008 ft 470 kts 144°
2026-05-08 15:01 45.01542 15.65679 33018 ft 470 kts 144°
2026-05-08 15:02 44.96517 15.71617 33018 ft 470 kts 144°
2026-05-08 15:02 44.91694 15.77880 33016 ft 473 kts 138°
2026-05-08 15:03 44.87089 15.84539 33020 ft 474 kts 138°
2026-05-08 15:03 44.82476 15.91172 33034 ft 474 kts 138°
2026-05-08 15:04 44.77848 15.97789 33036 ft 474 kts 138°
2026-05-08 15:04 44.73235 16.04363 33037 ft 475 kts 138°
2026-05-08 15:05 44.68594 16.10961 33041 ft 475 kts 138°
2026-05-08 15:05 44.63940 16.17561 33041 ft 474 kts 138°
2026-05-08 15:06 44.59292 16.24138 33042 ft 474 kts 138°
2026-05-08 15:06 44.54673 16.30666 33041 ft 474 kts 138°
2026-05-08 15:07 44.50016 16.37211 33029 ft 474 kts 138°
2026-05-08 15:07 44.45358 16.43694 33041 ft 470 kts 139°
2026-05-08 15:08 44.41509 16.49093 33039 ft 471 kts 138°
2026-05-08 15:08 44.36145 16.56697 33025 ft 471 kts 138°
2026-05-08 15:09 44.31506 16.63148 33032 ft 472 kts 138°
2026-05-08 15:09 44.26806 16.69666 33041 ft 476 kts 138°
2026-05-08 15:10 44.22118 16.76176 33030 ft 473 kts 138°
2026-05-08 15:10 44.17438 16.82660 33029 ft 474 kts 138°
2026-05-08 15:11 44.12757 16.89127 33021 ft 474 kts 138°
2026-05-08 15:11 44.08094 16.95554 33014 ft 474 kts 138°
2026-05-08 15:12 44.03393 17.02018 33019 ft 474 kts 138°
2026-05-08 15:12 43.98699 17.08456 33020 ft 474 kts 139°
2026-05-08 15:13 43.94025 17.14854 33021 ft 474 kts 139°
2026-05-08 15:13 43.89322 17.21274 33024 ft 473 kts 138°
2026-05-08 15:14 43.84632 17.27663 33025 ft 470 kts 138°
2026-05-08 15:14 43.79963 17.34010 33017 ft 471 kts 138°
2026-05-08 15:15 43.75283 17.40357 33018 ft 470 kts 138°
2026-05-08 15:15 43.70597 17.46693 33013 ft 470 kts 138°
2026-05-08 15:16 43.65949 17.52968 33014 ft 470 kts 138°
2026-05-08 15:16 43.61257 17.59286 33010 ft 471 kts 138°
2026-05-08 15:17 43.56567 17.65588 33013 ft 471 kts 139°
2026-05-08 15:17 43.51609 17.71476 33013 ft 470 kts 142°
2026-05-08 15:18 43.46660 17.77264 33021 ft 469 kts 142°
2026-05-08 15:18 43.41687 17.83074 32994 ft 469 kts 142°
2026-05-08 15:19 43.36684 17.88893 32985 ft 470 kts 142°
2026-05-08 15:19 43.31697 17.94682 32994 ft 470 kts 142°
2026-05-08 15:20 43.26718 18.00449 33015 ft 471 kts 142°
2026-05-08 15:20 43.21670 18.06282 33012 ft 471 kts 142°
2026-05-08 15:21 43.16656 18.12065 32996 ft 471 kts 142°
2026-05-08 15:21 43.11692 18.17776 32998 ft 471 kts 142°
2026-05-08 15:22 43.06646 18.23568 33030 ft 471 kts 142°
2026-05-08 15:22 43.01613 18.29333 33035 ft 471 kts 142°
2026-05-08 15:23 42.96583 18.35081 33026 ft 471 kts 142°
2026-05-08 15:23 42.91615 18.40749 32990 ft 471 kts 142°
2026-05-08 15:24 42.86579 18.46478 33003 ft 469 kts 142°
2026-05-08 15:24 42.81575 18.52161 32979 ft 466 kts 142°
2026-05-08 15:25 42.76610 18.57783 32992 ft 469 kts 142°
2026-05-08 15:25 42.71578 18.63472 32995 ft 469 kts 142°
2026-05-08 15:26 42.66552 18.69141 32992 ft 469 kts 142°
2026-05-08 15:26 42.61510 18.74815 32991 ft 470 kts 142°
2026-05-08 15:27 42.56503 18.80440 32992 ft 472 kts 142°
2026-05-08 15:27 42.51419 18.86138 32984 ft 473 kts 142°
2026-05-08 15:28 42.46341 18.91818 32979 ft 473 kts 142°
2026-05-08 15:28 42.41271 18.97474 32973 ft 475 kts 142°
2026-05-08 15:29 42.36166 19.03157 32970 ft 474 kts 142°
2026-05-08 15:29 42.31065 19.08825 32973 ft 474 kts 142°
2026-05-08 15:30 42.25965 19.14481 32958 ft 475 kts 142°
2026-05-08 15:30 42.20848 19.20140 32958 ft 475 kts 142°
2026-05-08 15:31 42.15756 19.25760 32965 ft 475 kts 142°
2026-05-08 15:31 42.10629 19.31407 32967 ft 476 kts 142°
2026-05-08 15:32 42.05504 19.37040 32971 ft 476 kts 142°
2026-05-08 15:32 42.00357 19.42685 32977 ft 476 kts 142°
2026-05-08 15:33 41.95192 19.48267 32981 ft 475 kts 144°
2026-05-08 15:33 41.89966 19.53590 32985 ft 475 kts 144°
2026-05-08 15:34 41.84711 19.58955 32987 ft 474 kts 144°
2026-05-08 15:34 41.79464 19.64336 32984 ft 474 kts 144°
2026-05-08 15:35 41.74224 19.69704 32989 ft 474 kts 144°
2026-05-08 15:35 41.68979 19.75064 32985 ft 474 kts 144°
2026-05-08 15:36 41.64620 19.79510 32995 ft 474 kts 144°
2026-05-08 15:36 41.59333 19.84897 32988 ft 479 kts 144°
2026-05-08 15:37 41.54041 19.90266 32998 ft 477 kts 144°
2026-05-08 15:37 41.48786 19.95595 32993 ft 478 kts 144°
2026-05-08 15:38 41.43490 20.00952 32992 ft 479 kts 144°
2026-05-08 15:38 41.38158 20.06334 33003 ft 480 kts 144°
2026-05-08 15:39 41.32833 20.11700 33005 ft 480 kts 144°
2026-05-08 15:39 41.27532 20.17024 32997 ft 479 kts 144°
2026-05-08 15:40 41.22203 20.22369 32999 ft 479 kts 144°
2026-05-08 15:40 41.16863 20.27715 32993 ft 480 kts 144°
2026-05-08 15:41 41.11558 20.33012 32993 ft 481 kts 144°
2026-05-08 15:41 41.06206 20.38349 32995 ft 482 kts 145°
2026-05-08 15:42 41.00847 20.43682 33003 ft 482 kts 145°
2026-05-08 15:42 40.95502 20.48984 32996 ft 480 kts 144°
2026-05-08 15:43 40.90137 20.54299 33005 ft 479 kts 144°
2026-05-08 15:43 40.84796 20.59580 33013 ft 479 kts 144°
2026-05-08 15:44 40.79454 20.64851 33005 ft 479 kts 145°
2026-05-08 15:44 40.74111 20.70112 33006 ft 479 kts 145°
2026-05-08 15:45 40.68785 20.75342 32991 ft 481 kts 144°
2026-05-08 15:45 40.63393 20.80626 33015 ft 483 kts 144°
2026-05-08 15:46 40.57995 20.85906 33005 ft 482 kts 144°
2026-05-08 15:46 40.52624 20.91152 33011 ft 480 kts 144°
2026-05-08 15:47 40.47314 20.96420 33010 ft 482 kts 141°
2026-05-08 15:47 40.42256 21.02275 33005 ft 489 kts 140°
2026-05-08 15:48 40.34539 21.11198 33032 ft 493 kts 141°
2026-05-08 15:49 40.29381 21.17124 33020 ft 494 kts 140°
2026-05-08 15:49 40.24215 21.23043 33015 ft 493 kts 141°
2026-05-08 15:50 40.19045 21.28964 33007 ft 493 kts 141°
2026-05-08 15:50 40.13861 21.34889 33002 ft 502 kts 142°
2026-05-08 15:51 40.08601 21.40882 32990 ft 503 kts 142°
2026-05-08 15:51 40.03302 21.46908 33001 ft 503 kts 142°
2026-05-08 15:52 39.98072 21.52841 33001 ft 502 kts 142°
2026-05-08 15:52 39.92805 21.58801 33031 ft 502 kts 142°
2026-05-08 15:53 39.87488 21.64803 33020 ft 507 kts 142°
2026-05-08 15:53 39.82146 21.70825 33015 ft 507 kts 142°
2026-05-08 15:54 39.76805 21.76833 33015 ft 507 kts 142°
2026-05-08 15:54 39.71444 21.82853 33012 ft 511 kts 143°
2026-05-08 15:55 39.66052 21.88888 33010 ft 511 kts 143°
2026-05-08 15:55 39.57953 21.97936 33014 ft 515 kts 144°
2026-05-08 15:56 39.52509 22.04002 33017 ft 515 kts 144°
2026-05-08 15:56 39.47066 22.10052 33011 ft 515 kts 144°
2026-05-08 15:57 39.41619 22.16094 33007 ft 518 kts 145°
2026-05-08 15:57 39.36126 22.22176 32995 ft 521 kts 146°
2026-05-08 15:58 39.30639 22.28235 33016 ft 524 kts 146°
2026-05-08 15:58 39.25091 22.34347 33008 ft 522 kts 146°
2026-05-08 15:59 39.19567 22.40423 33006 ft 522 kts 146°
2026-05-08 15:59 39.14040 22.46486 32968 ft 522 kts 146°
2026-05-08 16:00 39.08517 22.52535 33017 ft 524 kts 146°
2026-05-08 16:00 39.02928 22.58637 33013 ft 527 kts 147°
2026-05-08 16:01 38.97332 22.64739 33015 ft 527 kts 147°
2026-05-08 16:01 38.91734 22.70829 33018 ft 527 kts 147°
2026-05-08 16:02 38.86134 22.76906 33007 ft 527 kts 147°
2026-05-08 16:02 38.80555 22.82951 32997 ft 522 kts 146°
2026-05-08 16:03 38.75020 22.88930 32998 ft 523 kts 147°
2026-05-08 16:03 38.69456 22.94931 32994 ft 523 kts 147°
2026-05-08 16:04 38.63880 23.00929 32993 ft 523 kts 147°
2026-05-08 16:04 38.58304 23.06918 33003 ft 523 kts 147°
2026-05-08 16:05 38.52725 23.12891 32988 ft 521 kts 146°
2026-05-08 16:05 38.47180 23.18821 32997 ft 520 kts 146°
2026-05-08 16:06 38.41659 23.24714 33000 ft 520 kts 146°
2026-05-08 16:06 38.36098 23.30637 33001 ft 520 kts 146°
2026-05-08 16:07 38.30539 23.36544 33008 ft 520 kts 146°
2026-05-08 16:07 38.24975 23.42444 33019 ft 521 kts 146°
2026-05-08 16:08 38.19403 23.48343 33049 ft 522 kts 146°
2026-05-08 16:08 38.13826 23.54239 33054 ft 522 kts 146°
2026-05-08 16:09 38.09176 23.59138 33065 ft 522 kts 146°
2026-05-08 16:09 38.02633 23.66018 33057 ft 522 kts 146°
2026-05-08 16:10 37.97077 23.71847 33055 ft 521 kts 146°
2026-05-08 16:10 37.91498 23.77690 33047 ft 518 kts 146°
2026-05-08 16:11 37.85912 23.83422 33047 ft 515 kts 148°
2026-05-08 16:11 37.80148 23.88824 33046 ft 515 kts 149°
2026-05-08 16:12 37.74401 23.94227 33042 ft 515 kts 149°
2026-05-08 16:12 37.68673 23.99665 33044 ft 513 kts 149°
2026-05-08 16:13 37.62969 24.05078 33037 ft 512 kts 149°
2026-05-08 16:13 37.57303 24.10442 33036 ft 511 kts 149°
2026-05-08 16:14 37.51610 24.15818 33042 ft 511 kts 149°
2026-05-08 16:14 37.45919 24.21182 33041 ft 511 kts 149°
2026-05-08 16:15 37.40235 24.26528 33046 ft 510 kts 149°
2026-05-08 16:15 37.34554 24.31862 33049 ft 510 kts 149°
2026-05-08 16:16 37.28859 24.37198 33052 ft 510 kts 149°
2026-05-08 16:16 37.23168 24.42521 33058 ft 510 kts 149°
2026-05-08 16:17 37.18443 24.46932 33065 ft 510 kts 149°
2026-05-08 16:17 37.11811 24.53116 33068 ft 510 kts 149°
2026-05-08 16:18 37.06104 24.58418 33068 ft 510 kts 149°
2026-05-08 16:18 37.00394 24.63716 33070 ft 511 kts 149°
2026-05-08 16:19 36.94668 24.69020 33092 ft 511 kts 149°
2026-05-08 16:19 36.88979 24.74280 33073 ft 511 kts 149°
2026-05-08 16:20 36.83265 24.79554 33079 ft 510 kts 149°
2026-05-08 16:20 36.77549 24.84819 33080 ft 510 kts 149°
2026-05-08 16:21 36.71847 24.90061 33083 ft 510 kts 149°
2026-05-08 16:21 36.67098 24.94419 33086 ft 510 kts 149°
2026-05-08 16:22 36.61374 24.99663 33066 ft 510 kts 149°
2026-05-08 16:22 36.55681 25.04870 33087 ft 513 kts 150°
2026-05-08 16:23 36.49916 25.10130 33092 ft 514 kts 150°
2026-05-08 16:23 36.44148 25.15385 33094 ft 514 kts 150°
2026-05-08 16:24 36.38373 25.20637 33091 ft 513 kts 150°
2026-05-08 16:24 36.32600 25.25876 33074 ft 514 kts 150°
2026-05-08 16:25 36.26813 25.31119 33100 ft 515 kts 150°
2026-05-08 16:25 36.21043 25.36336 33089 ft 516 kts 150°
2026-05-08 16:26 36.15227 25.41585 33100 ft 517 kts 150°
2026-05-08 16:26 36.09445 25.46793 33109 ft 517 kts 150°
2026-05-08 16:27 36.03621 25.52030 33118 ft 517 kts 150°
2026-05-08 16:27 35.97798 25.57255 33108 ft 517 kts 150°
2026-05-08 16:28 35.92006 25.62444 33108 ft 517 kts 150°
2026-05-08 16:28 35.86183 25.67650 33112 ft 517 kts 150°
2026-05-08 16:29 35.80356 25.72850 33112 ft 517 kts 150°
2026-05-08 16:29 35.74522 25.78046 33114 ft 517 kts 150°
2026-05-08 16:30 35.68698 25.83225 33111 ft 516 kts 150°
2026-05-08 16:30 35.62872 25.88396 33109 ft 517 kts 150°
2026-05-08 16:31 35.57040 25.93562 33114 ft 516 kts 150°
2026-05-08 16:31 35.51229 25.98700 33111 ft 517 kts 150°
2026-05-08 16:32 35.45389 26.03854 33116 ft 517 kts 150°
2026-05-08 16:32 35.39545 26.09004 33118 ft 517 kts 150°
2026-05-08 16:33 35.33693 26.14150 33124 ft 517 kts 150°
2026-05-08 16:33 35.27892 26.19242 33123 ft 516 kts 150°
2026-05-08 16:34 35.22013 26.24393 33130 ft 517 kts 150°
2026-05-08 16:34 35.16164 26.29509 33116 ft 517 kts 150°
2026-05-08 16:35 35.10339 26.34594 33122 ft 517 kts 150°
2026-05-08 16:35 35.04474 26.39706 33125 ft 518 kts 150°
2026-05-08 16:36 34.98607 26.44809 33127 ft 518 kts 150°
2026-05-08 16:36 34.92722 26.49920 33130 ft 518 kts 150°
2026-05-08 16:37 34.86881 26.54983 33126 ft 518 kts 150°
2026-05-08 16:37 34.81010 26.60062 33122 ft 518 kts 150°
2026-05-08 16:38 34.75121 26.65149 33127 ft 518 kts 150°
2026-05-08 16:38 34.69261 26.70201 33131 ft 519 kts 150°
2026-05-08 16:39 34.63374 26.75268 33130 ft 518 kts 150°
2026-05-08 16:39 34.57474 26.80337 33132 ft 518 kts 150°
2026-05-08 16:40 34.51582 26.85384 33132 ft 519 kts 150°
2026-05-08 16:40 34.45721 26.90405 33137 ft 518 kts 150°
2026-05-08 16:41 34.39824 26.95447 33135 ft 518 kts 150°
2026-05-08 16:42 34.30976 27.02992 33133 ft 517 kts 150°
2026-05-08 16:42 34.25080 27.08009 33140 ft 517 kts 150°
2026-05-08 16:43 34.19216 27.12990 33137 ft 517 kts 150°
2026-05-08 16:43 34.13318 27.17990 33133 ft 517 kts 150°
2026-05-08 16:44 34.07425 27.22980 33137 ft 517 kts 150°
2026-05-08 16:44 34.01528 27.27967 33129 ft 517 kts 150°
2026-05-08 16:45 33.95624 27.32794 33125 ft 514 kts 154°
2026-05-08 16:45 33.89232 27.36506 33126 ft 507 kts 162°
2026-05-08 16:46 33.82749 27.39913 33151 ft 508 kts 162°
2026-05-08 16:46 33.76315 27.43324 33135 ft 508 kts 161°
2026-05-08 16:47 33.69839 27.46751 33134 ft 509 kts 162°
2026-05-08 16:47 33.63341 27.50181 33122 ft 509 kts 161°
2026-05-08 16:48 33.56835 27.53610 33146 ft 510 kts 161°
2026-05-08 16:48 33.50375 27.57010 33148 ft 510 kts 161°
2026-05-08 16:49 33.43862 27.60430 33142 ft 510 kts 161°
2026-05-08 16:49 33.37362 27.63839 33150 ft 510 kts 161°
2026-05-08 16:50 33.30853 27.67247 33153 ft 510 kts 161°
2026-05-08 16:50 33.24393 27.70624 33156 ft 510 kts 161°
2026-05-08 16:51 33.17881 27.74020 33153 ft 510 kts 161°
2026-05-08 16:51 33.11364 27.77416 33158 ft 510 kts 161°
2026-05-08 16:52 33.04845 27.80808 33160 ft 510 kts 161°
2026-05-08 16:52 32.98359 27.84176 33161 ft 511 kts 161°
2026-05-08 16:53 32.88582 27.89242 33154 ft 511 kts 161°
2026-05-08 16:53 32.82036 27.92629 33152 ft 511 kts 161°
2026-05-08 16:54 32.75557 27.95975 33158 ft 511 kts 161°
2026-05-08 16:54 32.69034 27.99338 33166 ft 512 kts 161°
2026-05-08 16:55 32.62481 28.02711 33168 ft 512 kts 161°
2026-05-08 16:55 32.55948 28.06069 33162 ft 512 kts 161°
2026-05-08 16:56 32.49403 28.09427 33164 ft 512 kts 161°
2026-05-08 16:56 32.42851 28.12783 33160 ft 512 kts 161°
2026-05-08 16:57 32.36303 28.16131 33168 ft 512 kts 161°
2026-05-08 16:57 32.29795 28.19455 33161 ft 512 kts 161°
2026-05-08 16:58 32.23240 28.22798 33164 ft 513 kts 161°
2026-05-08 16:58 32.16687 28.26134 33161 ft 513 kts 161°
2026-05-08 16:59 32.10119 28.29471 33151 ft 512 kts 161°
2026-05-08 16:59 32.03624 28.32768 33152 ft 512 kts 161°
2026-05-08 17:00 31.97060 28.36094 33168 ft 512 kts 161°
2026-05-08 17:00 31.90509 28.39406 33172 ft 511 kts 161°
2026-05-08 17:01 31.83973 28.42709 33157 ft 511 kts 160°
2026-05-08 17:01 31.77440 28.45992 33150 ft 511 kts 160°
2026-05-08 17:02 31.70891 28.49276 33150 ft 511 kts 160°
2026-05-08 17:02 31.64392 28.52531 33149 ft 510 kts 161°
2026-05-08 17:03 31.57839 28.55807 33127 ft 510 kts 160°
2026-05-08 17:03 31.51299 28.59062 33139 ft 510 kts 160°
2026-05-08 17:04 31.44748 28.62320 33140 ft 511 kts 160°
2026-05-08 17:04 31.38208 28.65568 33141 ft 511 kts 161°
2026-05-08 17:05 31.31694 28.68797 33142 ft 511 kts 160°
2026-05-08 17:05 31.25135 28.72047 33143 ft 511 kts 161°
2026-05-08 17:06 31.18587 28.75282 33145 ft 511 kts 161°
2026-05-08 17:06 31.12043 28.78512 33143 ft 511 kts 161°
2026-05-08 17:07 31.06590 28.81199 33141 ft 511 kts 161°
2026-05-08 17:07 30.98955 28.84957 33144 ft 511 kts 160°
2026-05-08 17:08 30.93508 28.87635 33145 ft 510 kts 160°
2026-05-08 17:08 30.86963 28.90846 33140 ft 510 kts 161°
2026-05-08 17:09 30.80423 28.94051 33139 ft 510 kts 161°
2026-05-08 17:09 30.73888 28.97247 33119 ft 510 kts 160°
2026-05-08 17:10 30.67343 29.00444 33133 ft 509 kts 160°
2026-05-08 17:10 30.60803 29.03636 33120 ft 509 kts 160°
2026-05-08 17:11 30.54280 29.06832 33118 ft 509 kts 158°
2026-05-08 17:11 30.48277 29.11168 33109 ft 515 kts 142°
2026-05-08 17:12 30.43171 29.17034 33105 ft 517 kts 135°
2026-05-08 17:12 30.38195 29.23061 33102 ft 517 kts 135°
2026-05-08 17:13 30.33191 29.29051 33094 ft 518 kts 135°
2026-05-08 17:13 30.28174 29.35041 33097 ft 518 kts 135°
2026-05-08 17:14 30.23182 29.41001 33092 ft 518 kts 135°
2026-05-08 17:14 30.18154 29.46999 33093 ft 518 kts 135°
2026-05-08 17:15 30.13134 29.52974 33093 ft 518 kts 135°
2026-05-08 17:15 30.08103 29.58954 33082 ft 519 kts 135°
2026-05-08 17:16 30.03065 29.64932 33086 ft 519 kts 135°
2026-05-08 17:16 29.98019 29.70912 33088 ft 519 kts 135°
2026-05-08 17:17 29.93002 29.76848 33083 ft 519 kts 136°
2026-05-08 17:17 29.87951 29.82810 33083 ft 519 kts 136°
2026-05-08 17:18 29.82893 29.88779 33071 ft 520 kts 135°
2026-05-08 17:18 29.77862 29.94705 33069 ft 520 kts 135°
2026-05-08 17:19 29.72794 30.00665 33069 ft 520 kts 135°
2026-05-08 17:19 29.67725 30.06616 33064 ft 520 kts 135°
2026-05-08 17:20 29.62684 30.12524 33062 ft 520 kts 135°
2026-05-08 17:20 29.57605 30.18467 33055 ft 521 kts 135°
2026-05-08 17:21 29.52522 30.24410 33057 ft 521 kts 135°
2026-05-08 17:21 29.47431 30.30351 33052 ft 521 kts 135°
2026-05-08 17:22 29.42342 30.36281 33055 ft 521 kts 135°
2026-05-08 17:22 29.37294 30.42182 33044 ft 521 kts 134°
2026-05-08 17:23 29.32280 30.48194 33048 ft 521 kts 134°
2026-05-08 17:23 29.27274 30.54187 33047 ft 520 kts 134°
2026-05-08 17:24 29.22252 30.60171 33044 ft 520 kts 134°
2026-05-08 17:24 29.17223 30.66150 33046 ft 520 kts 134°
2026-05-08 17:25 29.12233 30.72073 33044 ft 520 kts 134°
2026-05-08 17:25 29.07193 30.78047 33049 ft 520 kts 134°
2026-05-08 17:26 29.02157 30.84006 33054 ft 519 kts 134°
2026-05-08 17:26 28.97164 30.89908 33052 ft 519 kts 134°
2026-05-08 17:27 28.92144 30.95831 33056 ft 518 kts 134°
2026-05-08 17:27 28.87129 31.01740 33038 ft 518 kts 134°
2026-05-08 17:28 28.82141 31.07608 33044 ft 518 kts 134°
2026-05-08 17:28 28.77124 31.13504 33052 ft 518 kts 134°
2026-05-08 17:29 28.72091 31.19407 33053 ft 518 kts 134°
2026-05-08 17:29 28.67118 31.25352 33051 ft 517 kts 132°
2026-05-08 17:30 28.62329 31.31467 33054 ft 517 kts 131°
2026-05-08 17:30 28.57557 31.37528 33050 ft 517 kts 131°
2026-05-08 17:31 28.52735 31.43596 33056 ft 517 kts 132°
2026-05-08 17:31 28.47908 31.49651 33056 ft 517 kts 132°
2026-05-08 17:32 28.43074 31.55705 33045 ft 517 kts 132°
2026-05-08 17:32 28.38233 31.61762 33048 ft 517 kts 132°
2026-05-08 17:33 28.33427 31.67764 33044 ft 517 kts 132°
2026-05-08 17:33 28.28595 31.73793 33046 ft 516 kts 132°
2026-05-08 17:34 28.23757 31.79817 33040 ft 516 kts 132°
2026-05-08 17:34 28.18924 31.85827 33045 ft 516 kts 132°
2026-05-08 17:35 28.14085 31.91837 33038 ft 516 kts 132°
2026-05-08 17:35 28.09244 31.97840 33039 ft 515 kts 132°
2026-05-08 17:36 28.04455 32.03883 33032 ft 515 kts 128°
2026-05-08 17:36 28.00648 32.10668 33025 ft 513 kts 116°
2026-05-08 17:37 27.97262 32.17780 33024 ft 514 kts 117°
2026-05-08 17:37 27.93840 32.24882 33013 ft 514 kts 117°
2026-05-08 17:38 27.90411 32.31978 32974 ft 514 kts 117°
2026-05-08 17:38 27.86975 32.39080 32991 ft 514 kts 117°
2026-05-08 17:39 27.83537 32.46173 32977 ft 514 kts 117°
2026-05-08 17:39 27.80099 32.53257 32975 ft 514 kts 117°
2026-05-08 17:40 27.76653 32.60343 32978 ft 514 kts 117°
2026-05-08 17:40 27.73225 32.67381 32968 ft 515 kts 117°
2026-05-08 17:41 27.69767 32.74469 32962 ft 515 kts 117°
2026-05-08 17:41 27.66306 32.81551 32955 ft 515 kts 117°
2026-05-08 17:42 27.62837 32.88637 32951 ft 515 kts 117°
2026-05-08 17:42 27.59360 32.95727 32940 ft 516 kts 117°
2026-05-08 17:43 27.55896 33.02782 32950 ft 516 kts 117°
2026-05-08 17:43 27.52417 33.09855 32947 ft 516 kts 117°
2026-05-08 17:44 27.48923 33.16945 32945 ft 517 kts 117°
2026-05-08 17:44 27.45426 33.24028 32941 ft 517 kts 117°
2026-05-08 17:45 27.41922 33.31115 32938 ft 518 kts 117°
2026-05-08 17:45 27.38433 33.38161 32932 ft 518 kts 117°
2026-05-08 17:46 27.34927 33.45231 32923 ft 517 kts 117°
2026-05-08 17:46 27.31412 33.52302 32928 ft 517 kts 117°
2026-05-08 17:47 27.27891 33.59373 32929 ft 517 kts 117°
2026-05-08 17:47 27.24968 33.65236 32928 ft 517 kts 117°
2026-05-08 17:48 27.20873 33.73435 32910 ft 517 kts 117°
2026-05-08 17:48 27.17449 33.80550 32907 ft 516 kts 112°
2026-05-08 17:49 27.14804 33.87985 32907 ft 515 kts 109°
2026-05-08 17:49 27.12155 33.95461 32908 ft 516 kts 109°
2026-05-08 17:50 27.09485 34.02953 32901 ft 516 kts 109°
2026-05-08 17:50 27.06814 34.10436 32900 ft 516 kts 109°
2026-05-08 17:51 27.04142 34.17910 32891 ft 517 kts 109°
2026-05-08 17:51 27.01455 34.25405 32892 ft 517 kts 109°
2026-05-08 17:52 26.98785 34.32841 32890 ft 517 kts 109°
2026-05-08 17:53 26.94736 34.44098 32890 ft 517 kts 109°
2026-05-08 17:53 26.92037 34.51579 32887 ft 518 kts 109°
2026-05-08 17:54 26.89351 34.59011 32887 ft 518 kts 109°
2026-05-08 17:54 26.86641 34.66494 32886 ft 518 kts 109°
2026-05-08 17:55 26.84379 34.72731 32888 ft 518 kts 109°
2026-05-08 17:55 26.81658 34.80216 32889 ft 518 kts 109°
2026-05-08 17:56 26.78954 34.87643 32886 ft 518 kts 109°
2026-05-08 17:56 26.76231 34.95108 32894 ft 518 kts 109°
2026-05-08 17:57 26.73503 35.02572 32894 ft 518 kts 109°
2026-05-08 17:57 26.70765 35.10049 32893 ft 518 kts 109°
2026-05-08 17:58 26.68027 35.17513 32886 ft 518 kts 109°
2026-05-08 17:58 26.65286 35.24957 32890 ft 518 kts 109°
2026-05-08 17:59 26.62561 35.32362 32886 ft 518 kts 109°
2026-05-08 17:59 26.59837 35.39751 32880 ft 518 kts 109°
2026-05-08 18:00 26.57095 35.47167 32873 ft 518 kts 109°
2026-05-08 18:00 26.52896 35.58253 32877 ft 519 kts 110°
2026-05-08 18:01 26.50064 35.65644 32753 ft 517 kts 110°
2026-05-08 18:01 26.48643 35.69349 32866 ft 519 kts 110°
2026-05-08 18:01 26.47223 35.73059 32868 ft 519 kts 110°
2026-05-08 18:02 26.44400 35.80424 32870 ft 519 kts 110°
2026-05-08 18:02 26.41551 35.87842 32873 ft 519 kts 110°
2026-05-08 18:03 26.38700 35.95249 32873 ft 519 kts 110°
2026-05-08 18:03 26.35849 36.02645 32869 ft 519 kts 110°
2026-05-08 18:04 26.32992 36.10041 32866 ft 519 kts 110°
2026-05-08 18:04 26.30148 36.17391 32864 ft 519 kts 110°
2026-05-08 18:05 26.27283 36.24783 32866 ft 519 kts 110°
2026-05-08 18:05 26.24407 36.32187 32856 ft 520 kts 110°
2026-05-08 18:06 26.21546 36.39541 32858 ft 520 kts 110°
2026-05-08 18:06 26.18670 36.46920 32857 ft 520 kts 110°
2026-05-08 18:07 26.15330 36.54107 32851 ft 522 kts 116°
2026-05-08 18:07 26.11823 36.61195 32859 ft 523 kts 116°
2026-05-08 18:08 26.08329 36.68297 32860 ft 523 kts 116°
2026-05-08 18:08 26.04849 36.75352 32869 ft 523 kts 116°
2026-05-08 18:09 26.01329 36.82470 32864 ft 524 kts 116°
2026-05-08 18:09 25.97811 36.89571 32870 ft 524 kts 116°
2026-05-08 18:10 25.94284 36.96679 32871 ft 524 kts 116°
2026-05-08 18:10 25.90775 37.03739 32866 ft 525 kts 116°
2026-05-08 18:11 25.87233 37.10854 32870 ft 525 kts 116°
2026-05-08 18:11 25.83686 37.17969 32874 ft 525 kts 116°
2026-05-08 18:12 25.80167 37.25016 32884 ft 526 kts 116°
2026-05-08 18:12 25.76622 37.32136 32876 ft 526 kts 116°
2026-05-08 18:13 25.73084 37.39253 32887 ft 526 kts 116°
2026-05-08 18:13 25.69541 37.46358 32911 ft 526 kts 116°
2026-05-08 18:14 25.65989 37.53458 32907 ft 526 kts 116°
2026-05-08 18:14 25.62442 37.60555 32911 ft 526 kts 116°
2026-05-08 18:15 25.58912 37.67600 32902 ft 526 kts 117°
2026-05-08 18:15 25.55345 37.74707 32894 ft 526 kts 117°
2026-05-08 18:16 25.51784 37.81789 32886 ft 526 kts 117°
2026-05-08 18:16 25.48221 37.88867 32886 ft 526 kts 117°
2026-05-08 18:17 25.44653 37.95943 32885 ft 526 kts 117°
2026-05-08 18:17 25.41101 38.02979 32861 ft 527 kts 117°
2026-05-08 18:18 25.37522 38.10054 32864 ft 527 kts 117°
2026-05-08 18:18 25.33939 38.17125 32857 ft 527 kts 117°
2026-05-08 18:19 25.30354 38.24193 32866 ft 527 kts 117°
2026-05-08 18:19 25.26767 38.31251 32866 ft 527 kts 117°
2026-05-08 18:20 25.23170 38.38319 32872 ft 527 kts 117°
2026-05-08 18:20 25.19591 38.45342 32873 ft 527 kts 117°
2026-05-08 18:21 25.15987 38.52403 32886 ft 527 kts 118°
2026-05-08 18:21 25.12376 38.59455 32890 ft 527 kts 118°
2026-05-08 18:22 25.08767 38.66494 32902 ft 527 kts 118°
2026-05-08 18:22 25.05170 38.73498 32897 ft 527 kts 118°
2026-05-08 18:23 25.01553 38.80531 32903 ft 526 kts 118°
2026-05-08 18:23 24.97936 38.87554 32909 ft 526 kts 118°
2026-05-08 18:24 24.94321 38.94565 32913 ft 526 kts 119°
2026-05-08 18:24 24.90694 39.01573 32903 ft 526 kts 119°
2026-05-08 18:25 24.87086 39.08534 32911 ft 526 kts 119°
2026-05-08 18:25 24.83454 39.15537 32920 ft 526 kts 120°
2026-05-08 18:26 24.79822 39.22528 32922 ft 526 kts 120°
2026-05-08 18:26 24.76185 39.29518 32921 ft 526 kts 120°
2026-05-08 18:27 24.73161 39.35325 32937 ft 526 kts 120°
2026-05-08 18:27 24.68922 39.43455 32929 ft 526 kts 120°
2026-05-08 18:28 24.65272 39.50437 32941 ft 526 kts 120°
2026-05-08 18:28 24.61623 39.57415 32937 ft 526 kts 120°
2026-05-08 18:29 24.57969 39.64398 32961 ft 528 kts 121°
2026-05-08 18:29 24.55018 39.71772 32963 ft 529 kts 105°
2026-05-08 18:30 24.53856 39.79737 32956 ft 528 kts 94°
2026-05-08 18:30 24.53114 39.87781 32965 ft 531 kts 95°
2026-05-08 18:31 24.52337 39.95797 32963 ft 531 kts 95°
2026-05-08 18:31 24.51550 40.03874 32938 ft 531 kts 96°
2026-05-08 18:32 24.50774 40.11871 32967 ft 526 kts 97°
2026-05-08 18:32 24.49983 40.19895 32975 ft 527 kts 97°
2026-05-08 18:33 24.49196 40.27869 32983 ft 527 kts 97°
2026-05-08 18:33 24.48400 40.35880 32987 ft 527 kts 97°
2026-05-08 18:34 24.47602 40.43879 32993 ft 527 kts 97°
2026-05-08 18:34 24.46801 40.51885 32982 ft 528 kts 97°
2026-05-08 18:35 24.45991 40.59910 32992 ft 529 kts 98°
2026-05-08 18:35 24.45175 40.67946 33003 ft 530 kts 98°
2026-05-08 18:36 24.44359 40.75937 33021 ft 530 kts 97°
2026-05-08 18:36 24.43535 40.83987 33019 ft 530 kts 97°
2026-05-08 18:37 24.42709 40.92015 33044 ft 530 kts 98°
2026-05-08 18:37 24.41876 41.00067 33022 ft 531 kts 98°
2026-05-08 18:38 24.41041 41.08073 33042 ft 531 kts 98°
2026-05-08 18:38 24.40200 41.16126 33039 ft 532 kts 99°
2026-05-08 18:39 24.39353 41.24190 33048 ft 532 kts 99°
2026-05-08 18:39 24.38496 41.32275 33054 ft 532 kts 99°
2026-05-08 18:40 24.37785 41.38989 33055 ft 533 kts 100°
2026-05-08 18:40 24.36781 41.48377 33061 ft 533 kts 100°
2026-05-08 18:41 24.36058 41.55104 33063 ft 533 kts 101°
2026-05-08 18:41 24.35186 41.63202 33072 ft 532 kts 101°
2026-05-08 18:42 24.34312 41.71268 33070 ft 532 kts 101°
2026-05-08 18:42 24.33440 41.79278 33076 ft 532 kts 101°
2026-05-08 18:43 24.31886 41.87130 33069 ft 524 kts 112°
2026-05-08 18:43 24.29844 41.94801 33066 ft 524 kts 111°
2026-05-08 18:44 24.27820 42.02501 33067 ft 524 kts 111°
2026-05-08 18:44 24.25812 42.10121 33069 ft 523 kts 111°
2026-05-08 18:45 24.23788 42.17778 33073 ft 523 kts 111°
2026-05-08 18:45 24.21758 42.25449 33080 ft 523 kts 112°
2026-05-08 18:46 24.19722 42.33112 33099 ft 524 kts 112°
2026-05-08 18:46 24.17679 42.40786 33059 ft 524 kts 112°
2026-05-08 18:47 24.15639 42.48446 33087 ft 524 kts 113°
2026-05-08 18:47 24.13590 42.56105 33089 ft 524 kts 113°
2026-05-08 18:48 24.11548 42.63727 33100 ft 523 kts 113°
2026-05-08 18:48 24.09493 42.71386 33104 ft 523 kts 113°
2026-05-08 18:49 24.07438 42.79026 33109 ft 522 kts 113°
2026-05-08 18:49 24.05381 42.86654 33109 ft 522 kts 113°
2026-05-08 18:50 24.03333 42.94232 33109 ft 522 kts 113°
2026-05-08 18:50 24.01266 43.01862 33110 ft 522 kts 113°
2026-05-08 18:51 23.99200 43.09481 33105 ft 522 kts 114°
2026-05-08 18:51 23.97129 43.17091 33109 ft 522 kts 114°
2026-05-08 18:52 23.95051 43.24716 33106 ft 522 kts 114°
2026-05-08 18:52 23.92986 43.32277 33112 ft 522 kts 114°
2026-05-08 18:53 23.90897 43.39909 33107 ft 522 kts 114°
2026-05-08 18:53 23.88821 43.47474 33104 ft 519 kts 114°
2026-05-08 18:54 23.86743 43.55034 33097 ft 519 kts 114°
2026-05-08 18:54 23.84660 43.62590 33088 ft 519 kts 114°
2026-05-08 18:55 23.81549 43.73859 33088 ft 515 kts 114°
2026-05-08 18:56 23.79488 43.81298 33080 ft 515 kts 114°
2026-05-08 18:56 23.77565 43.88819 33071 ft 516 kts 108°
2026-05-08 18:57 23.76797 43.96721 33062 ft 525 kts 101°
2026-05-08 18:57 23.76224 44.04680 33045 ft 524 kts 101°
2026-05-08 18:58 23.75634 44.12590 33044 ft 523 kts 101°
2026-05-08 18:58 23.75038 44.20483 33060 ft 527 kts 101°
2026-05-08 18:59 23.74435 44.28458 33055 ft 523 kts 101°
2026-05-08 18:59 23.73831 44.36386 33052 ft 524 kts 101°
2026-05-08 19:00 23.73221 44.44320 33049 ft 524 kts 101°
2026-05-08 19:00 23.72612 44.52202 33060 ft 524 kts 101°
2026-05-08 19:01 23.71994 44.60154 33054 ft 525 kts 101°
2026-05-08 19:01 23.71373 44.68079 33065 ft 524 kts 101°
2026-05-08 19:02 23.70754 44.75940 33055 ft 523 kts 101°
2026-05-08 19:02 23.70123 44.83898 33055 ft 523 kts 101°
2026-05-08 19:03 23.69496 44.91756 33055 ft 522 kts 101°
2026-05-08 19:03 23.68861 44.99655 33045 ft 523 kts 101°
2026-05-08 19:04 23.68219 45.07558 33051 ft 522 kts 101°
2026-05-08 19:04 23.67577 45.15449 33045 ft 522 kts 101°
2026-05-08 19:05 23.66934 45.23291 33037 ft 521 kts 101°
2026-05-08 19:05 23.66285 45.31176 33035 ft 521 kts 101°
2026-05-08 19:06 23.65631 45.39060 33024 ft 521 kts 101°
2026-05-08 19:06 23.64973 45.46943 33021 ft 521 kts 101°
2026-05-08 19:07 23.64315 45.54779 32986 ft 521 kts 101°
2026-05-08 19:07 23.63651 45.62645 33003 ft 521 kts 101°
2026-05-08 19:08 23.62981 45.70520 33002 ft 521 kts 101°
2026-05-08 19:08 23.62307 45.78390 32983 ft 521 kts 101°
2026-05-08 19:09 23.61632 45.86233 32989 ft 522 kts 101°
2026-05-08 19:09 23.60951 45.94089 32993 ft 522 kts 101°
2026-05-08 19:10 23.60263 46.01993 32992 ft 522 kts 101°
2026-05-08 19:10 23.59572 46.09875 32999 ft 522 kts 101°
2026-05-08 19:11 23.58877 46.17756 32993 ft 522 kts 101°
2026-05-08 19:11 23.58177 46.25640 33006 ft 522 kts 101°
2026-05-08 19:12 23.57469 46.33520 33010 ft 522 kts 101°
2026-05-08 19:12 23.56768 46.41396 33005 ft 522 kts 101°
2026-05-08 19:13 23.56065 46.49190 33005 ft 522 kts 101°
2026-05-08 19:13 23.55348 46.57095 32993 ft 522 kts 101°
2026-05-08 19:14 23.54629 46.64972 32992 ft 522 kts 101°
2026-05-08 19:14 23.53911 46.72812 32992 ft 523 kts 101°
2026-05-08 19:15 23.53183 46.80694 32983 ft 523 kts 101°
2026-05-08 19:15 23.52451 46.88584 32981 ft 523 kts 101°
2026-05-08 19:16 23.51715 46.96471 32981 ft 523 kts 101°
2026-05-08 19:16 23.50973 47.04374 32978 ft 523 kts 102°
2026-05-08 19:17 23.50228 47.12270 32971 ft 523 kts 102°
2026-05-08 19:17 23.49479 47.20155 32966 ft 523 kts 101°
2026-05-08 19:18 23.48728 47.28039 32956 ft 523 kts 101°
2026-05-08 19:18 23.47973 47.35921 32963 ft 523 kts 101°
2026-05-08 19:19 23.47218 47.43751 32956 ft 523 kts 101°
2026-05-08 19:19 23.46454 47.51629 32962 ft 523 kts 101°
2026-05-08 19:20 23.45687 47.59513 32952 ft 523 kts 101°
2026-05-08 19:20 23.44915 47.67391 32948 ft 523 kts 101°
2026-05-08 19:21 23.44139 47.75264 32948 ft 523 kts 101°
2026-05-08 19:21 23.43361 47.83130 32945 ft 522 kts 101°
2026-05-08 19:22 23.42580 47.90990 32938 ft 522 kts 101°
2026-05-08 19:22 23.41794 47.98857 32934 ft 522 kts 101°
2026-05-08 19:23 23.41005 48.06713 32933 ft 522 kts 101°
2026-05-08 19:23 23.40211 48.14574 32920 ft 522 kts 101°
2026-05-08 19:24 23.39418 48.22388 32922 ft 522 kts 101°
2026-05-08 19:24 23.38521 48.30210 32924 ft 517 kts 107°
2026-05-08 19:25 23.36167 48.37468 32917 ft 503 kts 123°
2026-05-08 19:25 23.32496 48.43874 32924 ft 498 kts 129°
2026-05-08 19:26 23.28766 48.50227 32913 ft 498 kts 129°
2026-05-08 19:26 23.25043 48.56580 32892 ft 498 kts 128°
2026-05-08 19:27 23.21320 48.62917 32910 ft 497 kts 128°
2026-05-08 19:27 23.17593 48.69256 32905 ft 497 kts 128°
2026-05-08 19:28 23.14504 48.74503 32905 ft 498 kts 128°
2026-05-08 19:28 23.10756 48.80858 32906 ft 498 kts 128°
2026-05-08 19:29 23.06414 48.88210 32898 ft 497 kts 128°
2026-05-08 19:29 23.03286 48.93504 32913 ft 497 kts 128°
2026-05-08 19:30 22.99550 48.99820 32886 ft 497 kts 128°
2026-05-08 19:30 22.95812 49.06130 32892 ft 497 kts 128°
2026-05-08 19:31 22.92091 49.12401 32903 ft 497 kts 128°
2026-05-08 19:31 22.88347 49.18705 32897 ft 497 kts 128°
2026-05-08 19:32 22.84603 49.25003 32895 ft 497 kts 128°
2026-05-08 19:32 22.80855 49.31300 32894 ft 497 kts 128°
2026-05-08 19:33 22.77101 49.37595 32884 ft 497 kts 128°
2026-05-08 19:33 22.73354 49.43875 32896 ft 496 kts 127°
2026-05-08 19:34 22.69609 49.50143 32891 ft 495 kts 128°
2026-05-08 19:34 22.65868 49.56397 32893 ft 495 kts 127°
2026-05-08 19:35 22.62125 49.62646 32890 ft 494 kts 127°
2026-05-08 19:35 22.58391 49.68876 32898 ft 493 kts 127°
2026-05-08 19:36 22.54658 49.75095 32886 ft 492 kts 127°
2026-05-08 19:36 22.50955 49.81255 32887 ft 492 kts 127°
2026-05-08 19:37 22.47221 49.87461 32886 ft 492 kts 127°
2026-05-08 19:37 22.43490 49.93655 32884 ft 492 kts 127°
2026-05-08 19:38 22.39752 49.99852 32876 ft 492 kts 127°
2026-05-08 19:38 22.36015 50.06042 32879 ft 492 kts 127°
2026-05-08 19:39 22.32270 50.12237 32880 ft 492 kts 127°
2026-05-08 19:39 22.28519 50.18435 32891 ft 492 kts 127°
2026-05-08 19:40 22.24765 50.24629 32882 ft 492 kts 127°
2026-05-08 19:40 22.21011 50.30817 32882 ft 493 kts 127°
2026-05-08 19:41 22.17279 50.36962 32886 ft 493 kts 127°
2026-05-08 19:41 22.13517 50.43148 32874 ft 493 kts 127°
2026-05-08 19:42 22.09752 50.49333 32882 ft 493 kts 127°
2026-05-08 19:42 22.05987 50.55511 32880 ft 493 kts 127°
2026-05-08 19:43 22.02277 50.61739 32874 ft 495 kts 122°
2026-05-08 19:43 21.99991 50.68800 32870 ft 506 kts 103°
2026-05-08 19:44 21.99514 50.76358 32874 ft 510 kts 95°
2026-05-08 19:44 21.99197 50.83999 32875 ft 511 kts 96°
2026-05-08 19:45 21.98861 50.91649 32876 ft 511 kts 95°
2026-05-08 19:45 21.98523 50.99293 32879 ft 511 kts 96°
2026-05-08 19:46 21.98180 51.06936 32879 ft 511 kts 96°
2026-05-08 19:46 21.97659 51.18397 32878 ft 510 kts 96°
2026-05-08 19:47 21.97307 51.26034 32881 ft 510 kts 96°
2026-05-08 19:47 21.96952 51.33666 32880 ft 510 kts 96°
2026-05-08 19:48 21.96593 51.41305 32874 ft 510 kts 96°
2026-05-08 19:48 21.96231 51.48940 32873 ft 510 kts 96°
2026-05-08 19:49 21.95867 51.56525 32874 ft 510 kts 96°
2026-05-08 19:49 21.95497 51.64158 32868 ft 510 kts 95°
2026-05-08 19:50 21.95125 51.71792 32869 ft 510 kts 95°
2026-05-08 19:50 21.94749 51.79428 32875 ft 510 kts 96°
2026-05-08 19:51 21.94368 51.87050 32872 ft 510 kts 96°
2026-05-08 19:51 21.93985 51.94672 32868 ft 509 kts 96°
2026-05-08 19:52 21.93599 52.02287 32867 ft 509 kts 96°
2026-05-08 19:52 21.93208 52.09891 32863 ft 509 kts 95°
2026-05-08 19:53 21.92814 52.17516 32865 ft 510 kts 95°
2026-05-08 19:53 21.92418 52.25122 32868 ft 510 kts 95°
2026-05-08 19:54 21.92017 52.32745 32864 ft 510 kts 95°
2026-05-08 19:54 21.91614 52.40332 32864 ft 510 kts 95°
2026-05-08 19:55 21.91207 52.47952 32861 ft 510 kts 95°
2026-05-08 19:55 21.90795 52.55594 32864 ft 509 kts 96°
2026-05-08 19:56 21.90381 52.63205 32864 ft 509 kts 96°
2026-05-08 19:56 21.89963 52.70813 32859 ft 509 kts 96°
2026-05-08 19:57 21.89545 52.78375 32854 ft 508 kts 96°
2026-05-08 19:57 21.89121 52.85973 32854 ft 508 kts 96°
2026-05-08 19:58 21.88694 52.93565 32852 ft 508 kts 96°
2026-05-08 19:58 21.88263 53.01161 32855 ft 508 kts 96°
2026-05-08 19:59 21.87828 53.08757 32851 ft 509 kts 96°
2026-05-08 19:59 21.87390 53.16342 32852 ft 509 kts 96°
2026-05-08 20:00 21.86948 53.23969 32852 ft 509 kts 96°
2026-05-08 20:00 21.86504 53.31541 32853 ft 509 kts 96°
2026-05-08 20:01 21.86052 53.39192 32849 ft 508 kts 96°
2026-05-08 20:01 21.85604 53.46705 32852 ft 506 kts 96°
2026-05-08 20:02 21.85150 53.54270 32848 ft 506 kts 96°
2026-05-08 20:02 21.84693 53.61834 32847 ft 506 kts 96°
2026-05-08 20:03 21.84230 53.69444 32848 ft 506 kts 96°
2026-05-08 20:03 21.83769 53.76959 32848 ft 506 kts 96°
2026-05-08 20:04 21.83301 53.84528 32849 ft 506 kts 96°
2026-05-08 20:04 21.82830 53.92093 32843 ft 506 kts 96°
2026-05-08 20:05 21.82356 53.99646 32841 ft 506 kts 96°
2026-05-08 20:05 21.81880 54.07197 32843 ft 506 kts 96°
2026-05-08 20:06 21.81399 54.14743 32841 ft 505 kts 96°
2026-05-08 20:06 21.80915 54.22287 32828 ft 505 kts 95°
2026-05-08 20:07 21.80431 54.29779 32838 ft 505 kts 95°
2026-05-08 20:07 21.79941 54.37330 32836 ft 505 kts 95°
2026-05-08 20:08 21.79448 54.44865 32833 ft 505 kts 95°
2026-05-08 20:08 21.78952 54.52399 32835 ft 505 kts 95°
2026-05-08 20:09 21.78452 54.59927 32834 ft 505 kts 95°
2026-05-08 20:09 21.77949 54.67453 32832 ft 504 kts 95°
2026-05-08 20:10 21.77442 54.74987 32833 ft 504 kts 95°
2026-05-08 20:10 21.76932 54.82505 32835 ft 504 kts 96°
2026-05-08 20:11 21.76418 54.90026 32830 ft 504 kts 96°
2026-05-08 20:11 21.75903 54.97545 32828 ft 504 kts 96°
2026-05-08 20:12 21.75387 55.04986 32833 ft 503 kts 96°
2026-05-08 20:12 21.74862 55.12506 32826 ft 503 kts 95°
2026-05-08 20:13 21.74340 55.20000 32830 ft 503 kts 95°
2026-05-08 20:13 21.73813 55.27504 32837 ft 503 kts 95°
2026-05-08 20:14 21.73281 55.35010 32837 ft 503 kts 95°
2026-05-08 20:14 21.72747 55.42502 32835 ft 503 kts 95°
2026-05-08 20:15 21.72211 55.50002 32834 ft 503 kts 95°
2026-05-08 20:15 21.71763 55.56229 32838 ft 502 kts 95°
2026-05-08 20:16 21.71287 55.63721 32841 ft 502 kts 94°
2026-05-08 20:16 21.70808 55.72428 32834 ft 502 kts 94°
2026-05-08 20:17 21.70450 55.78719 32834 ft 502 kts 95°
2026-05-08 20:17 21.70016 55.86166 32841 ft 502 kts 95°
2026-05-08 20:18 21.69575 55.93654 32843 ft 502 kts 95°
2026-05-08 20:18 21.69129 56.01141 32838 ft 501 kts 94°
2026-05-08 20:19 21.68683 56.08626 32843 ft 501 kts 94°
2026-05-08 20:19 21.68233 56.16116 32837 ft 501 kts 94°
2026-05-08 20:20 21.67779 56.23603 32835 ft 501 kts 94°
2026-05-08 20:20 21.67322 56.31086 32846 ft 501 kts 95°
2026-05-08 20:21 21.66861 56.38571 32844 ft 501 kts 95°
2026-05-08 20:21 21.66400 56.46000 32837 ft 501 kts 95°
2026-05-08 20:22 21.65934 56.53471 32838 ft 501 kts 95°
2026-05-08 20:22 21.65464 56.60949 32842 ft 501 kts 95°
2026-05-08 20:23 21.64990 56.68424 32848 ft 501 kts 95°
2026-05-08 20:23 21.64512 56.75899 32846 ft 501 kts 95°
2026-05-08 20:24 21.64032 56.83377 32838 ft 501 kts 95°
2026-05-08 20:24 21.63549 56.90856 32840 ft 501 kts 95°
2026-05-08 20:25 21.63061 56.98333 32849 ft 501 kts 95°
2026-05-08 20:25 21.62574 57.05761 32852 ft 501 kts 95°
2026-05-08 20:26 21.62081 57.13235 32840 ft 501 kts 95°
2026-05-08 20:26 21.61583 57.20709 32849 ft 501 kts 95°
2026-05-08 20:27 21.61081 57.28175 32842 ft 501 kts 95°
2026-05-08 20:27 21.60576 57.35646 32842 ft 501 kts 95°
2026-05-08 20:28 21.60067 57.43124 32847 ft 501 kts 95°
2026-05-08 20:28 21.59556 57.50594 32839 ft 501 kts 95°
2026-05-08 20:29 21.59041 57.58067 32845 ft 501 kts 95°
2026-05-08 20:29 21.58458 57.65524 32837 ft 500 kts 99°
2026-05-08 20:30 21.56846 57.72717 32835 ft 498 kts 109°
2026-05-08 20:30 21.54823 57.79840 32832 ft 498 kts 108°
2026-05-08 20:31 21.52824 57.86965 32838 ft 498 kts 108°
2026-05-08 20:31 21.50823 57.94082 32830 ft 498 kts 108°
2026-05-08 20:32 21.48815 58.01199 32833 ft 498 kts 108°
2026-05-08 20:32 21.46805 58.08314 32831 ft 498 kts 108°
2026-05-08 20:33 21.44792 58.15424 32827 ft 498 kts 108°
2026-05-08 20:33 21.42775 58.22535 32830 ft 497 kts 108°
2026-05-08 20:34 21.40770 58.29595 32827 ft 497 kts 108°
2026-05-08 20:35 21.37736 58.40252 32822 ft 498 kts 108°
2026-05-08 20:35 21.35709 58.47356 32822 ft 498 kts 108°
2026-05-08 20:36 21.33680 58.54457 32823 ft 498 kts 108°
2026-05-08 20:36 21.31644 58.61566 32817 ft 498 kts 108°
2026-05-08 20:37 21.29621 58.68620 32818 ft 498 kts 108°
2026-05-08 20:37 21.27578 58.75728 32812 ft 498 kts 108°
2026-05-08 20:38 21.25535 58.82828 32803 ft 498 kts 108°
2026-05-08 20:38 21.23487 58.89926 32809 ft 498 kts 108°
2026-05-08 20:39 21.21438 58.97015 32806 ft 498 kts 108°
2026-05-08 20:39 21.19396 59.04070 32803 ft 498 kts 109°
2026-05-08 20:40 21.17341 59.11158 32797 ft 498 kts 108°
2026-05-08 20:40 21.15279 59.18255 32804 ft 498 kts 109°
2026-05-08 20:41 21.13215 59.25345 32811 ft 498 kts 109°
2026-05-08 20:41 21.11151 59.32430 32793 ft 499 kts 109°
2026-05-08 20:42 21.09082 59.39517 32802 ft 499 kts 109°
2026-05-08 20:42 21.07013 59.46596 32793 ft 499 kts 109°
2026-05-08 20:43 21.04936 59.53685 32800 ft 499 kts 109°
2026-05-08 20:43 21.02870 59.60718 32794 ft 499 kts 109°
2026-05-08 20:44 21.00091 59.67464 32796 ft 494 kts 126°
2026-05-08 20:44 20.97910 59.70293 32798 ft 490 kts 138°
2026-05-08 20:44 20.95295 59.72601 32801 ft 486 kts 148°
2026-05-08 20:45 20.89465 59.76263 32802 ft 486 kts 152°
2026-05-08 20:45 20.83631 59.79916 32805 ft 487 kts 150°
2026-05-08 20:46 20.77831 59.83619 32815 ft 487 kts 151°
2026-05-08 20:46 20.72016 59.87343 32818 ft 487 kts 151°
2026-05-08 20:47 20.66194 59.91064 32832 ft 488 kts 152°
2026-05-08 20:47 20.60381 59.94776 32806 ft 486 kts 151°
2026-05-08 20:48 20.54591 59.98473 32801 ft 484 kts 150°
2026-05-08 20:48 20.48779 60.02180 32820 ft 487 kts 151°
2026-05-08 20:49 20.42957 60.05889 32832 ft 488 kts 150°
2026-05-08 20:49 20.37123 60.09603 32824 ft 488 kts 151°
2026-05-08 20:50 20.31395 60.13243 32817 ft 486 kts 151°
2026-05-08 20:50 20.25557 60.16953 32839 ft 488 kts 151°
2026-05-08 20:51 20.19712 60.20664 32849 ft 490 kts 151°
2026-05-08 20:51 20.13876 60.24366 32838 ft 487 kts 150°
2026-05-08 20:52 20.08035 60.28068 32845 ft 487 kts 151°
2026-05-08 20:52 20.02521 60.32300 32830 ft 491 kts 139°
2026-05-08 20:53 19.97487 60.37138 32822 ft 491 kts 140°
2026-05-08 20:53 19.92398 60.41985 32833 ft 490 kts 139°
2026-05-08 20:54 19.87315 60.46812 32833 ft 490 kts 139°
2026-05-08 20:54 19.82232 60.51641 32824 ft 490 kts 140°
2026-05-08 20:55 19.77137 60.56473 32839 ft 490 kts 139°
2026-05-08 20:55 19.72066 60.61278 32840 ft 491 kts 139°
2026-05-08 20:56 19.66971 60.66101 32839 ft 491 kts 139°
2026-05-08 20:56 19.61874 60.70925 32839 ft 491 kts 139°
2026-05-08 20:57 19.56790 60.75729 32839 ft 491 kts 139°
2026-05-08 20:57 19.51675 60.80559 32858 ft 491 kts 139°
2026-05-08 20:58 19.46570 60.85376 32842 ft 491 kts 139°
2026-05-08 20:58 19.41505 60.90151 32843 ft 491 kts 139°
2026-05-08 20:59 19.36401 60.94957 32845 ft 491 kts 139°
2026-05-08 20:59 19.31297 60.99760 32854 ft 491 kts 139°
2026-05-08 21:00 19.26193 61.04559 32851 ft 491 kts 139°
2026-05-08 21:00 19.21083 61.09358 32864 ft 491 kts 139°
2026-05-08 21:01 19.15977 61.14150 32851 ft 491 kts 139°
2026-05-08 21:01 19.10870 61.18940 32852 ft 491 kts 139°
2026-05-08 21:02 19.05760 61.23728 32854 ft 491 kts 139°
2026-05-08 21:02 19.00650 61.28511 32848 ft 491 kts 139°
2026-05-08 21:03 18.96425 61.32463 32858 ft 491 kts 139°
2026-05-08 21:03 18.90451 61.38047 32854 ft 491 kts 139°
2026-05-08 21:04 18.85335 61.42823 32858 ft 491 kts 139°
2026-05-08 21:04 18.81045 61.46825 32859 ft 491 kts 139°
2026-05-08 21:05 18.75963 61.51563 32864 ft 491 kts 139°
2026-05-08 21:05 18.70841 61.56335 32858 ft 491 kts 139°
2026-05-08 21:06 18.65722 61.61099 32868 ft 490 kts 139°
2026-05-08 21:06 18.60605 61.65858 32865 ft 491 kts 139°
2026-05-08 21:07 18.55486 61.70614 32863 ft 490 kts 139°
2026-05-08 21:07 18.50365 61.75369 32864 ft 491 kts 139°
2026-05-08 21:08 18.45244 61.80118 32866 ft 491 kts 139°
2026-05-08 21:08 18.40123 61.84866 32861 ft 491 kts 139°
2026-05-08 21:09 18.35000 61.89610 32864 ft 490 kts 139°
2026-05-08 21:09 18.29872 61.94355 32874 ft 490 kts 139°
2026-05-08 21:10 18.24747 61.99093 32867 ft 491 kts 139°
2026-05-08 21:10 18.19651 62.03801 32868 ft 491 kts 139°
2026-05-08 21:11 18.14520 62.08538 32873 ft 491 kts 139°
2026-05-08 21:11 18.09385 62.13274 32866 ft 491 kts 139°
2026-05-08 21:12 18.04240 62.18015 32866 ft 491 kts 139°
2026-05-08 21:12 17.99103 62.22746 32868 ft 491 kts 139°
2026-05-08 21:13 17.93966 62.27471 32875 ft 491 kts 139°
2026-05-08 21:13 17.88824 62.32197 32872 ft 491 kts 139°
2026-05-08 21:14 17.83683 62.36919 32869 ft 491 kts 139°
2026-05-08 21:14 17.78541 62.41639 32880 ft 491 kts 139°
2026-05-08 21:15 17.73399 62.46355 32879 ft 491 kts 139°
2026-05-08 21:15 17.68281 62.51046 32864 ft 492 kts 139°
2026-05-08 21:16 17.63126 62.55767 32872 ft 492 kts 139°
2026-05-08 21:16 17.57968 62.60487 32872 ft 492 kts 139°
2026-05-08 21:17 17.52806 62.65207 32875 ft 492 kts 139°
2026-05-08 21:17 17.47648 62.69919 32874 ft 492 kts 139°
2026-05-08 21:18 17.42483 62.74634 32866 ft 492 kts 139°
2026-05-08 21:18 17.37305 62.79356 32867 ft 493 kts 139°
2026-05-08 21:19 17.32132 62.84071 32878 ft 493 kts 139°
2026-05-08 21:19 17.26990 62.88754 32880 ft 493 kts 139°
2026-05-08 21:20 17.21813 62.93464 32876 ft 493 kts 139°
2026-05-08 21:20 17.16634 62.98174 32884 ft 493 kts 139°
2026-05-08 21:21 17.11452 63.02883 32874 ft 494 kts 139°
2026-05-08 21:21 17.06261 63.07598 32873 ft 494 kts 139°
2026-05-08 21:22 17.01069 63.12310 32880 ft 494 kts 139°
2026-05-08 21:22 16.95798 63.16932 32889 ft 494 kts 140°
2026-05-08 21:23 16.90493 63.21495 32879 ft 494 kts 140°
2026-05-08 21:23 16.85236 63.26042 32880 ft 494 kts 140°
2026-05-08 21:24 16.79951 63.30622 32892 ft 494 kts 140°
2026-05-08 21:24 16.74666 63.35199 32885 ft 494 kts 140°
2026-05-08 21:25 16.69383 63.39769 32885 ft 494 kts 140°
2026-05-08 21:25 16.64096 63.44340 32877 ft 493 kts 140°
2026-05-08 21:26 16.58803 63.48913 32883 ft 493 kts 140°
2026-05-08 21:26 16.53512 63.53481 32885 ft 494 kts 140°
2026-05-08 21:27 16.48221 63.58045 32883 ft 494 kts 140°
2026-05-08 21:27 16.42925 63.62607 32883 ft 494 kts 140°
2026-05-08 21:28 16.37629 63.67171 32884 ft 494 kts 140°
2026-05-08 21:28 16.32362 63.71706 32883 ft 494 kts 140°
2026-05-08 21:29 16.27062 63.76265 32890 ft 494 kts 140°
2026-05-08 21:29 16.21763 63.80819 32880 ft 494 kts 140°
2026-05-08 21:30 16.16467 63.85368 32883 ft 494 kts 140°
2026-05-08 21:30 16.11162 63.89921 32882 ft 494 kts 140°
2026-05-08 21:31 16.05861 63.94468 32887 ft 494 kts 140°
2026-05-08 21:31 16.00569 63.99004 32884 ft 494 kts 140°
2026-05-08 21:32 15.95243 64.03564 32876 ft 495 kts 140°
2026-05-08 21:32 15.89971 64.08076 32885 ft 494 kts 140°
2026-05-08 21:33 15.84668 64.12612 32886 ft 494 kts 140°
2026-05-08 21:33 15.79360 64.17148 32881 ft 494 kts 140°
2026-05-08 21:34 15.74056 64.21677 32878 ft 494 kts 140°
2026-05-08 21:34 15.68747 64.26208 32884 ft 494 kts 140°
2026-05-08 21:35 15.63446 64.30730 32883 ft 494 kts 140°
2026-05-08 21:35 15.58118 64.35270 32876 ft 494 kts 140°
2026-05-08 21:36 15.52843 64.39763 32884 ft 494 kts 140°
2026-05-08 21:36 15.47531 64.44284 32887 ft 493 kts 140°
2026-05-08 21:37 15.42222 64.48799 32870 ft 494 kts 140°
2026-05-08 21:37 15.36908 64.53316 32871 ft 494 kts 140°
2026-05-08 21:38 15.31588 64.57834 32881 ft 495 kts 140°
2026-05-08 21:38 15.26258 64.62358 32875 ft 495 kts 140°
2026-05-08 21:39 15.20935 64.66874 32876 ft 495 kts 140°
2026-05-08 21:39 15.15606 64.71391 32874 ft 495 kts 140°
2026-05-08 21:40 15.10272 64.75909 32881 ft 495 kts 140°
2026-05-08 21:40 15.04931 64.80430 32872 ft 496 kts 140°
2026-05-08 21:41 14.96911 64.87212 32880 ft 496 kts 140°
2026-05-08 21:41 14.91601 64.91700 32879 ft 496 kts 140°
2026-05-08 21:42 14.86261 64.96210 32877 ft 496 kts 141°
2026-05-08 21:42 14.80914 65.00723 32872 ft 497 kts 141°
2026-05-08 21:43 14.75551 65.05245 32874 ft 497 kts 141°
2026-05-08 21:43 14.70187 65.09767 32878 ft 496 kts 141°
2026-05-08 21:44 14.64857 65.14256 32866 ft 497 kts 141°
2026-05-08 21:44 14.59499 65.18768 32866 ft 497 kts 141°
2026-05-08 21:45 14.54121 65.23288 32874 ft 497 kts 141°
2026-05-08 21:45 14.48761 65.27789 32872 ft 497 kts 141°
2026-05-08 21:46 14.43389 65.32300 32883 ft 496 kts 141°
2026-05-08 21:46 14.38030 65.36797 32876 ft 496 kts 141°
2026-05-08 21:47 14.32664 65.41297 32864 ft 497 kts 141°
2026-05-08 21:47 14.27301 65.45790 32869 ft 496 kts 140°
2026-05-08 21:48 14.21981 65.50247 32870 ft 495 kts 140°
2026-05-08 21:48 14.16630 65.54725 32863 ft 496 kts 140°
2026-05-08 21:49 14.11274 65.59205 32865 ft 496 kts 141°
2026-05-08 21:49 14.05918 65.63682 32862 ft 495 kts 141°
2026-05-08 21:50 14.00572 65.68148 32862 ft 495 kts 140°
2026-05-08 21:50 13.95228 65.72610 32860 ft 494 kts 141°
2026-05-08 21:51 13.89886 65.77066 32857 ft 494 kts 141°
2026-05-08 21:51 13.84576 65.81493 32851 ft 494 kts 140°
2026-05-08 21:52 13.79225 65.85949 32858 ft 494 kts 141°
2026-05-08 21:52 13.73885 65.90399 32856 ft 494 kts 141°
2026-05-08 21:53 13.68541 65.94849 32851 ft 494 kts 140°
2026-05-08 21:53 13.63202 65.99289 32852 ft 494 kts 140°
2026-05-08 21:54 13.58763 66.02979 32857 ft 494 kts 140°
2026-05-08 21:54 13.53421 66.07419 32853 ft 494 kts 141°
2026-05-08 21:55 13.48073 66.11860 32857 ft 494 kts 141°
2026-05-08 21:56 13.40055 66.18513 32854 ft 494 kts 141°
2026-05-08 21:56 13.34708 66.22946 32856 ft 494 kts 140°
2026-05-08 21:57 13.29403 66.27342 32858 ft 493 kts 140°
2026-05-08 21:57 13.24017 66.31805 32859 ft 493 kts 140°
2026-05-08 21:58 13.18678 66.36224 32854 ft 493 kts 140°
2026-05-08 21:58 13.13381 66.40605 32855 ft 492 kts 140°
2026-05-08 21:59 13.08048 66.45014 32855 ft 492 kts 140°
2026-05-08 21:59 13.02713 66.49422 32853 ft 493 kts 140°
2026-05-08 22:00 12.97374 66.53833 32854 ft 493 kts 140°
2026-05-08 22:00 12.92035 66.58240 32853 ft 492 kts 140°
2026-05-08 22:01 12.86700 66.62640 32863 ft 491 kts 140°
2026-05-08 22:01 12.81375 66.67029 32857 ft 491 kts 140°
2026-05-08 22:02 12.76054 66.71414 32852 ft 491 kts 140°
2026-05-08 22:02 12.70734 66.75794 32848 ft 491 kts 140°
2026-05-08 22:03 12.65409 66.80178 32849 ft 491 kts 140°
2026-05-08 22:03 12.60083 66.84560 32850 ft 491 kts 140°
2026-05-08 22:04 12.54761 66.88935 32852 ft 491 kts 140°
2026-05-08 22:04 12.49445 66.93304 32852 ft 490 kts 140°
2026-05-08 22:05 12.44170 66.97634 32861 ft 489 kts 140°
2026-05-08 22:05 12.38867 67.01988 32854 ft 489 kts 140°
2026-05-08 22:06 12.33565 67.06337 32852 ft 488 kts 140°
2026-05-08 22:06 12.28270 67.10678 32851 ft 487 kts 140°
2026-05-08 22:07 12.22980 67.15014 32843 ft 488 kts 140°
2026-05-08 22:07 12.17687 67.19350 32838 ft 488 kts 140°
2026-05-08 22:08 12.12394 67.23682 32853 ft 487 kts 140°
2026-05-08 22:08 12.07108 67.28008 32848 ft 487 kts 140°
2026-05-08 22:09 12.01823 67.32331 32844 ft 486 kts 140°
2026-05-08 22:09 11.96546 67.36644 32841 ft 486 kts 140°
2026-05-08 22:10 11.91264 67.40957 32841 ft 486 kts 140°
2026-05-08 22:10 11.85982 67.45272 32837 ft 486 kts 140°
2026-05-08 22:11 11.80702 67.49584 32845 ft 486 kts 140°
2026-05-08 22:11 11.75421 67.53894 32842 ft 486 kts 140°
2026-05-08 22:12 11.70174 67.58173 32843 ft 486 kts 140°
2026-05-08 22:12 11.64892 67.62479 32840 ft 486 kts 140°
2026-05-08 22:13 11.59615 67.66779 32833 ft 486 kts 140°
2026-05-08 22:13 11.54327 67.71085 32837 ft 486 kts 140°
2026-05-08 22:14 11.49045 67.75384 32839 ft 486 kts 140°
2026-05-08 22:14 11.43763 67.79680 32841 ft 485 kts 140°
2026-05-08 22:15 11.38480 67.83977 32834 ft 486 kts 140°
2026-05-08 22:15 11.33200 67.88268 32835 ft 486 kts 140°
2026-05-08 22:16 11.27919 67.92558 32833 ft 486 kts 140°
2026-05-08 22:16 11.22634 67.96848 32834 ft 486 kts 140°
2026-05-08 22:17 11.17383 68.01110 32837 ft 486 kts 140°
2026-05-08 22:17 11.12100 68.05395 32835 ft 486 kts 140°
2026-05-08 22:18 11.06813 68.09683 32833 ft 486 kts 140°
2026-05-08 22:18 11.01518 68.13974 32833 ft 486 kts 140°
2026-05-08 22:19 10.96222 68.18263 32838 ft 486 kts 140°
2026-05-08 22:19 10.90932 68.22547 32840 ft 486 kts 140°
2026-05-08 22:20 10.85647 68.26823 32840 ft 485 kts 140°
2026-05-08 22:20 10.80359 68.31099 32830 ft 485 kts 140°
2026-05-08 22:21 10.75073 68.35372 32832 ft 485 kts 140°
2026-05-08 22:21 10.69793 68.39638 32828 ft 486 kts 140°
2026-05-08 22:22 10.64506 68.43909 32831 ft 485 kts 140°
2026-05-08 22:22 10.59266 68.48139 32835 ft 485 kts 140°
2026-05-08 22:23 10.53960 68.52421 32818 ft 485 kts 140°
2026-05-08 22:23 10.48674 68.56686 32832 ft 485 kts 140°
2026-05-08 22:24 10.43376 68.60958 32833 ft 486 kts 140°
2026-05-08 22:24 10.38084 68.65223 32830 ft 486 kts 140°
2026-05-08 22:25 10.32791 68.69487 32832 ft 486 kts 140°
2026-05-08 22:25 10.27497 68.73750 32833 ft 485 kts 140°
2026-05-08 22:26 10.22208 68.78006 32839 ft 485 kts 140°
2026-05-08 22:26 10.16909 68.82269 32832 ft 486 kts 140°
2026-05-08 22:27 10.11606 68.86535 32827 ft 486 kts 140°
2026-05-08 22:27 10.06335 68.90771 32829 ft 486 kts 140°
2026-05-08 22:28 10.01025 68.95038 32830 ft 487 kts 140°
2026-05-08 22:28 9.95721 68.99299 32831 ft 487 kts 140°
2026-05-08 22:29 9.90412 69.03561 32830 ft 487 kts 140°
2026-05-08 22:29 9.85103 69.07821 32837 ft 486 kts 140°
2026-05-08 22:30 9.79796 69.12077 32829 ft 486 kts 140°
2026-05-08 22:30 9.74498 69.16326 32830 ft 486 kts 140°
2026-05-08 22:31 9.69232 69.20543 32825 ft 486 kts 140°
2026-05-08 22:31 9.63928 69.24786 32827 ft 485 kts 140°
2026-05-08 22:32 9.58629 69.29025 32828 ft 485 kts 140°
2026-05-08 22:32 9.53321 69.33271 32828 ft 485 kts 140°
2026-05-08 22:33 9.48011 69.37516 32826 ft 486 kts 141°
2026-05-08 22:33 9.42701 69.41759 32821 ft 486 kts 141°
2026-05-08 22:34 9.37400 69.45991 32823 ft 486 kts 141°
2026-05-08 22:34 9.32085 69.50235 32827 ft 486 kts 140°
2026-05-08 22:35 9.26817 69.54441 32825 ft 485 kts 141°
2026-05-08 22:35 9.21517 69.58670 32828 ft 485 kts 140°
2026-05-08 22:36 9.16217 69.62896 32825 ft 485 kts 141°
2026-05-08 22:36 9.10914 69.67123 32826 ft 485 kts 141°
2026-05-08 22:37 9.05616 69.71344 32829 ft 484 kts 141°
2026-05-08 22:37 9.00318 69.75564 32828 ft 484 kts 141°
2026-05-08 22:38 8.95025 69.79778 32824 ft 484 kts 140°
2026-05-08 22:38 8.89736 69.83989 32816 ft 484 kts 141°
2026-05-08 22:39 8.84442 69.88201 32822 ft 484 kts 141°
2026-05-08 22:39 8.79149 69.92412 32819 ft 484 kts 141°
2026-05-08 22:40 8.73854 69.96620 32819 ft 484 kts 141°
2026-05-08 22:40 8.68561 70.00826 32818 ft 484 kts 141°
2026-05-08 22:41 8.63267 70.05031 32825 ft 483 kts 141°
2026-05-08 22:41 8.57982 70.09229 32826 ft 483 kts 141°
2026-05-08 22:42 8.52726 70.13402 32822 ft 484 kts 141°
2026-05-08 22:42 8.47435 70.17600 32821 ft 484 kts 141°
2026-05-08 22:43 8.42144 70.21797 32817 ft 484 kts 141°
2026-05-08 22:43 8.36849 70.25997 32824 ft 483 kts 141°
2026-05-08 22:44 8.32450 70.29483 32819 ft 483 kts 141°
2026-05-08 22:44 8.27169 70.33668 32821 ft 483 kts 141°
2026-05-08 22:45 8.21874 70.37863 32814 ft 483 kts 141°
2026-05-08 22:45 8.16584 70.42053 32815 ft 483 kts 141°
2026-05-08 22:46 8.11293 70.46241 32814 ft 484 kts 141°
2026-05-08 22:46 8.06000 70.50430 32815 ft 484 kts 141°
2026-05-08 22:47 8.00702 70.54622 32827 ft 483 kts 141°
2026-05-08 22:47 7.95409 70.58809 32823 ft 483 kts 141°
2026-05-08 22:48 7.90129 70.62982 32826 ft 482 kts 141°
2026-05-08 22:48 7.84879 70.67130 32813 ft 482 kts 141°
2026-05-08 22:49 7.79608 70.71294 32813 ft 482 kts 141°
2026-05-08 22:49 7.71671 70.77563 32812 ft 482 kts 141°
2026-05-08 22:50 7.66389 70.81732 32816 ft 482 kts 141°
2026-05-08 22:50 7.61105 70.85902 32816 ft 482 kts 141°
2026-05-08 22:51 7.55823 70.90067 32828 ft 481 kts 141°
2026-05-08 22:51 7.50552 70.94225 32823 ft 481 kts 140°
2026-05-08 22:52 7.45322 70.98346 32816 ft 480 kts 141°
2026-05-08 22:52 7.40057 71.02490 32815 ft 480 kts 141°
2026-05-08 22:53 7.34793 71.06632 32814 ft 480 kts 141°
2026-05-08 22:53 7.29529 71.10773 32814 ft 480 kts 141°
2026-05-08 22:54 7.24267 71.14911 32813 ft 480 kts 141°
2026-05-08 22:54 7.19002 71.19050 32813 ft 480 kts 140°
2026-05-08 22:55 7.13739 71.23184 32827 ft 478 kts 140°
2026-05-08 22:55 7.08495 71.27307 32819 ft 477 kts 140°
2026-05-08 22:56 7.03270 71.31412 32815 ft 477 kts 140°
2026-05-08 22:56 6.98074 71.35492 32813 ft 477 kts 140°
2026-05-08 22:57 6.92848 71.39594 32812 ft 476 kts 140°
2026-05-08 22:57 6.87584 71.43726 32814 ft 476 kts 140°
2026-05-08 22:58 6.82386 71.47804 32819 ft 479 kts 140°
2026-05-08 22:58 6.77111 71.51943 32821 ft 481 kts 140°
2026-05-08 22:59 6.71834 71.56080 32824 ft 481 kts 140°
2026-05-08 22:59 6.66545 71.60226 32818 ft 481 kts 140°
2026-05-08 23:00 6.61268 71.64361 32822 ft 481 kts 140°
2026-05-08 23:00 6.55984 71.68501 32825 ft 481 kts 140°
2026-05-08 23:01 6.50751 71.72599 32823 ft 482 kts 140°
2026-05-08 23:01 6.45441 71.76757 32832 ft 481 kts 140°
2026-05-08 23:02 6.40212 71.80851 32829 ft 481 kts 140°
2026-05-08 23:02 6.34917 71.84995 32827 ft 480 kts 140°
2026-05-08 23:03 6.29634 71.89129 32825 ft 480 kts 140°
2026-05-08 23:03 6.24354 71.93259 32820 ft 481 kts 140°
2026-05-08 23:04 6.19100 71.97366 32821 ft 481 kts 140°
2026-05-08 23:04 6.13810 72.01501 32830 ft 481 kts 140°
2026-05-08 23:05 6.08552 72.05611 32827 ft 480 kts 140°
2026-05-08 23:05 6.03271 72.09737 32826 ft 480 kts 140°
2026-05-08 23:06 5.97993 72.13860 32827 ft 480 kts 140°
2026-05-08 23:06 5.92719 72.17980 32827 ft 480 kts 140°
2026-05-08 23:07 5.87441 72.22101 32826 ft 480 kts 140°
2026-05-08 23:07 5.82196 72.26195 32827 ft 481 kts 140°
2026-05-08 23:08 5.76904 72.30328 32829 ft 480 kts 140°
2026-05-08 23:08 5.71619 72.34450 32829 ft 481 kts 140°
2026-05-08 23:09 5.66370 72.38543 32829 ft 481 kts 141°
2026-05-08 23:09 5.61088 72.42662 32829 ft 481 kts 141°
2026-05-08 23:10 5.55811 72.46776 32829 ft 481 kts 141°
2026-05-08 23:10 5.50506 72.50911 32830 ft 481 kts 140°
2026-05-08 23:11 5.45217 72.55033 32830 ft 481 kts 141°
2026-05-08 23:11 5.39950 72.59137 32827 ft 481 kts 140°
2026-05-08 23:12 5.34654 72.63262 32824 ft 482 kts 140°
2026-05-08 23:12 5.29350 72.67394 32827 ft 483 kts 140°
2026-05-08 23:13 5.24044 72.71525 32829 ft 483 kts 140°
2026-05-08 23:13 5.18754 72.75643 32831 ft 483 kts 140°
2026-05-08 23:14 5.13445 72.79776 32831 ft 483 kts 140°
2026-05-08 23:14 5.08134 72.83909 32828 ft 483 kts 140°
2026-05-08 23:15 5.02817 72.88045 32823 ft 482 kts 141°
2026-05-08 23:15 5.00173 72.90100 32452 ft 480 kts 141°
2026-05-08 23:15 4.97557 72.92135 31539 ft 484 kts 141°
2026-05-08 23:16 4.94881 72.94218 30214 ft 491 kts 141°
2026-05-08 23:16 4.92145 72.96346 28648 ft 499 kts 141°
2026-05-08 23:16 4.89413 72.98470 27619 ft 494 kts 141°
2026-05-08 23:16 4.86711 73.00568 26844 ft 487 kts 140°
2026-05-08 23:17 4.84041 73.02647 26026 ft 482 kts 141°
2026-05-08 23:17 4.81424 73.04725 25359 ft 475 kts 141°
2026-05-08 23:17 4.78869 73.06769 24956 ft 463 kts 140°
2026-05-08 23:17 4.76400 73.08746 24722 ft 447 kts 140°
2026-05-08 23:18 4.73988 73.10681 24487 ft 443 kts 140°
2026-05-08 23:18 4.71597 73.12600 24276 ft 446 kts 141°
2026-05-08 23:18 4.69179 73.14539 24056 ft 444 kts 141°
2026-05-08 23:18 4.66777 73.16465 23842 ft 442 kts 141°
2026-05-08 23:19 4.64365 73.18398 23625 ft 443 kts 140°
2026-05-08 23:19 4.61958 73.20326 23408 ft 442 kts 140°
2026-05-08 23:19 4.59575 73.22237 23158 ft 441 kts 141°
2026-05-08 23:19 4.57227 73.24119 22887 ft 437 kts 141°
2026-05-08 23:20 4.54883 73.25997 23691 ft 435 kts 141°
2026-05-08 23:20 4.52510 73.27903 23444 ft 440 kts 141°
2026-05-08 23:20 4.50102 73.29832 22112 ft 439 kts 141°
2026-05-08 23:20 4.47733 73.31731 21859 ft 434 kts 141°
2026-05-08 23:21 4.45379 73.33618 21618 ft 432 kts 141°
2026-05-08 23:21 4.43026 73.35505 21372 ft 432 kts 141°
2026-05-08 23:21 4.40696 73.37373 21128 ft 427 kts 141°
2026-05-08 23:21 4.38368 73.39239 20886 ft 429 kts 141°
2026-05-08 23:22 4.36033 73.41111 20642 ft 430 kts 141°
2026-05-08 23:22 4.33697 73.42946 20401 ft 423 kts 145°
2026-05-08 23:22 4.31138 73.44296 20176 ft 421 kts 160°
2026-05-08 23:22 4.28287 73.44970 19954 ft 424 kts 174°
2026-05-08 23:23 4.25345 73.44909 19720 ft 422 kts 188°
2026-05-08 23:23 4.22473 73.44367 19500 ft 420 kts 195°
2026-05-08 23:23 4.19680 73.43566 19254 ft 413 kts 198°
2026-05-08 23:23 4.16971 73.42726 19034 ft 414 kts 198°
2026-05-08 23:24 4.14163 73.41951 18799 ft 416 kts 191°
2026-05-08 23:24 4.11255 73.41803 18582 ft 416 kts 176°
2026-05-08 23:24 4.08385 73.42064 18324 ft 413 kts 179°
2026-05-08 23:24 4.05559 73.41926 17795 ft 411 kts 186°
2026-05-08 23:25 4.02696 73.41651 17036 ft 404 kts 187°
2026-05-08 23:25 3.99949 73.41405 16318 ft 398 kts 186°
2026-05-08 23:25 3.97203 73.41169 15437 ft 396 kts 186°
2026-05-08 23:25 3.94473 73.40945 14347 ft 392 kts 186°
2026-05-08 23:26 3.91759 73.40725 13171 ft 388 kts 186°
2026-05-08 23:26 3.89082 73.40508 11943 ft 384 kts 186°
2026-05-08 23:26 3.86433 73.40299 10757 ft 379 kts 186°
2026-05-08 23:26 3.83816 73.40092 9605 ft 374 kts 186°
2026-05-08 23:27 3.81239 73.39900 8368 ft 368 kts 186°
2026-05-08 23:27 3.78700 73.39720 7175 ft 363 kts 185°
2026-05-08 23:27 3.76200 73.39798 6102 ft 358 kts 172°
2026-05-08 23:27 3.73947 73.40564 5661 ft 334 kts 153°
2026-05-08 23:28 3.72152 73.41916 5368 ft 306 kts 134°
2026-05-08 23:28 3.70957 73.43562 4765 ft 293 kts 117°
2026-05-08 23:28 3.70330 73.45460 4232 ft 282 kts 98°
2026-05-08 23:28 3.70280 73.47436 4009 ft 284 kts 81°
2026-05-08 23:29 3.70757 73.49327 3880 ft 279 kts 65°
2026-05-08 23:29 3.71723 73.51002 3877 ft 276 kts 49°
2026-05-08 23:29 3.73074 73.52338 3879 ft 273 kts 33°
2026-05-08 23:29 3.74709 73.53253 3876 ft 266 kts 18°
2026-05-08 23:30 3.76500 73.53702 3881 ft 265 kts
2026-05-08 23:30 3.78300 73.53532 3891 ft 261 kts 345°
2026-05-08 23:30 3.80094 73.53208 3885 ft 263 kts 351°
2026-05-08 23:30 3.81927 73.53089 3885 ft 264 kts 356°
2026-05-08 23:31 3.83764 73.53092 3889 ft 263 kts 357°
2026-05-08 23:31 3.84974 73.53096 3887 ft 263 kts 357°
2026-05-08 23:31 3.86814 73.53094 3889 ft 265 kts 357°
2026-05-08 23:31 3.88637 73.53095 3889 ft 262 kts 357°
2026-05-08 23:32 3.90467 73.53095 3893 ft 265 kts 357°
2026-05-08 23:32 3.92305 73.53096 3893 ft 264 kts 357°
2026-05-08 23:32 3.94736 73.53097 3897 ft 263 kts 357°
2026-05-08 23:32 3.95977 73.53097 3898 ft 266 kts 357°
2026-05-08 23:33 3.97826 73.53097 3833 ft 266 kts 357°
2026-05-08 23:33 3.99647 73.53098 3543 ft 256 kts 357°
2026-05-08 23:33 4.01387 73.53099 3237 ft 244 kts 356°
2026-05-08 23:33 4.03038 73.53099 2922 ft 236 kts 357°
2026-05-08 23:34 4.04654 73.53099 2618 ft 229 kts 356°
2026-05-08 23:34 4.06215 73.53099 2337 ft 216 kts 356°
2026-05-08 23:34 4.07661 73.53100 2063 ft 201 kts 356°
2026-05-08 23:34 4.09018 73.53101 1814 ft 188 kts 356°
2026-05-08 23:35 4.10273 73.53101 1588 ft 171 kts 356°
2026-05-08 23:35 4.11402 73.53101 1374 ft 155 kts 356°
2026-05-08 23:35 4.12426 73.53101 1179 ft 140 kts 355°
2026-05-08 23:35 4.13417 73.53101 996 ft 146 kts 354°
2026-05-08 23:36 4.14395 73.53100 810 ft 136 kts 355°
2026-05-08 23:36 4.15382 73.53096 659 ft 147 kts 356°
2026-05-08 23:36 4.16356 73.53101 464 ft 135 kts 358°
2026-05-08 23:36 4.17348 73.53100 277 ft 152 kts 356°
2026-05-08 23:37 4.18363 73.53102 86 ft 145 kts 357°
2026-05-08 23:37 4.19369 73.53100 18 ft 129 kts 359°
2026-05-08 23:37 4.19962 73.53100 18 ft 46 kts 360°
2026-05-08 23:37 4.20231 73.53098 18 ft 24 kts 360°
2026-05-08 23:38 4.20329 73.53097 18 ft 15 kts 356°
2026-05-08 23:38 4.20369 73.53021 18 ft 13 kts 268°
2026-05-08 23:38 4.20360 73.52924 18 ft 13 kts 253°
2026-05-08 23:38 4.20280 73.52899 18 ft 13 kts 177°
2026-05-08 23:39 4.20181 73.52903 18 ft 15 kts 178°
2026-05-08 23:39 4.20068 73.52903 18 ft 17 kts 182°
2026-05-08 23:39 4.19946 73.52903 18 ft 19 kts 179°
2026-05-08 23:39 4.19810 73.52905 18 ft 21 kts 179°
2026-05-08 23:40 4.19639 73.52908 20 ft 28 kts 179°
2026-05-08 23:40 4.19434 73.52910 18 ft 30 kts 179°
2026-05-08 23:40 4.19226 73.52914 18 ft 30 kts 179°
2026-05-08 23:40 4.19016 73.52918 18 ft 30 kts 179°
2026-05-08 23:41 4.18804 73.52922 18 ft 31 kts 179°
2026-05-08 23:41 4.18590 73.52925 19 ft 31 kts 179°
2026-05-08 23:41 4.18375 73.52928 18 ft 31 kts 179°
2026-05-08 23:41 4.18174 73.52931 18 ft 20 kts 179°
2026-05-08 23:42 4.18124 73.52879 19 ft 0 kts 263°
2026-05-08 23:42 4.18123 73.52874 19 ft 1 kts 263°
2026-05-08 23:42 4.18125 73.52860 18 ft 3 kts 279°
2026-05-08 23:42 4.18138 73.52814 18 ft 9 kts 272°
2026-05-08 23:43 4.18137 73.52788 18 ft 3 kts 270°
2026-05-08 23:43 4.18137 73.52770 18 ft 0 kts 270°
2026-05-08 23:43 4.18137 73.52769 18 ft 0 kts 270°